BAW7JG KSFO-EGLL

Flight info

Callsign BAW7JG
Flight time 10h 9m
Altitude 35000
Route SNTNA2 TIPRE Q126 INSLO DCT DTA DCT CKW DCT FAR/N0489F370 DCT 50N088W DCT YGL DCT 56N070W DCT LAKES DCT IRBIM/M084F370 DCT TOXIT DCT 60N050W/M085F390 60N040W 60N030W 58N020W DCT SUNOT/N0481F390 DCT KESIX DCT APSOV DCT BELZU DCT DUFFY DCT RINGA DCT IOM DCT KELLY L10 WAL UY53 NUGRA
Aircraft A388/J-SADE2E3FGHIJ3J4J5M1RWXY/LB1D1

Departure

Time 2026-05-03 22:11
Airport San Francisco International Airport (KSFO)

Arrival

Time 2026-05-04 08:21
Airport London Heathrow Airport (EGLL)
Time Latitude Longitude Altitude Speed Heading
2026-05-03 21:09 37.61286 -122.38851 26 ft 0 kts 296°
2026-05-03 21:20 37.61286 -122.38850 25 ft 0 kts 296°
2026-05-03 21:24 37.61285 -122.38850 23 ft 0 kts 296°
2026-05-03 21:28 37.61285 -122.38849 23 ft 0 kts 296°
2026-05-03 21:36 37.61285 -122.38848 23 ft 0 kts 296°
2026-05-03 21:51 37.61280 -122.38837 23 ft 3 kts 270°
2026-05-03 21:52 37.61278 -122.38815 28 ft 3 kts 281°
2026-05-03 21:52 37.61276 -122.38791 29 ft 3 kts 258°
2026-05-03 21:52 37.61283 -122.38768 29 ft 3 kts 231°
2026-05-03 21:52 37.61297 -122.38751 29 ft 3 kts 212°
2026-05-03 21:53 37.61314 -122.38739 29 ft 2 kts 207°
2026-05-03 21:53 37.61321 -122.38735 29 ft 0 kts 207°
2026-05-03 21:56 37.61317 -122.38737 25 ft 1 kts 207°
2026-05-03 21:56 37.61308 -122.38743 26 ft 2 kts 207°
2026-05-03 21:56 37.61289 -122.38755 28 ft 4 kts 207°
2026-05-03 21:57 37.61261 -122.38773 24 ft 5 kts 207°
2026-05-03 21:57 37.61224 -122.38797 27 ft 7 kts 205°
2026-05-03 21:57 37.61203 -122.38811 24 ft 4 kts 207°
2026-05-03 21:57 37.61172 -122.38831 26 ft 5 kts 207°
2026-05-03 21:58 37.61137 -122.38854 28 ft 6 kts 207°
2026-05-03 21:58 37.61098 -122.38879 28 ft 6 kts 202°
2026-05-03 21:58 37.61057 -122.38886 25 ft 6 kts 172°
2026-05-03 21:58 37.61018 -122.38862 25 ft 7 kts 133°
2026-05-03 21:59 37.60987 -122.38808 24 ft 9 kts 124°
2026-05-03 21:59 37.60956 -122.38737 24 ft 10 kts 115°
2026-05-03 21:59 37.60925 -122.38655 23 ft 11 kts 115°
2026-05-03 21:59 37.60893 -122.38568 25 ft 11 kts 113°
2026-05-03 22:00 37.60877 -122.38475 23 ft 10 kts 105°
2026-05-03 22:00 37.60852 -122.38399 27 ft 9 kts 116°
2026-05-03 22:00 37.60828 -122.38336 28 ft 7 kts 107°
2026-05-03 22:00 37.60831 -122.38281 27 ft 6 kts 60°
2026-05-03 22:01 37.60872 -122.38239 27 ft 10 kts 28°
2026-05-03 22:01 37.60950 -122.38187 30 ft 15 kts 27°
2026-05-03 22:01 37.61027 -122.38088 29 ft 17 kts 66°
2026-05-03 22:01 37.61086 -122.37942 25 ft 21 kts 54°
2026-05-03 22:02 37.61182 -122.37794 26 ft 23 kts 50°
2026-05-03 22:02 37.61232 -122.37616 26 ft 22 kts 81°
2026-05-03 22:02 37.61301 -122.37475 29 ft 19 kts 33°
2026-05-03 22:02 37.61422 -122.37388 29 ft 21 kts 28°
2026-05-03 22:03 37.61542 -122.37275 28 ft 21 kts 57°
2026-05-03 22:03 37.61548 -122.37101 31 ft 20 kts 111°
2026-05-03 22:03 37.61482 -122.36951 26 ft 19 kts 126°
2026-05-03 22:03 37.61394 -122.36819 29 ft 20 kts 130°
2026-05-03 22:04 37.61322 -122.36674 26 ft 20 kts 117°
2026-05-03 22:04 37.61256 -122.36518 22 ft 20 kts 117°
2026-05-03 22:04 37.61193 -122.36367 22 ft 19 kts 118°
2026-05-03 22:04 37.61133 -122.36225 24 ft 18 kts 118°
2026-05-03 22:05 37.61097 -122.36139 26 ft 0 kts 118°
2026-05-03 22:05 37.61095 -122.36134 26 ft 0 kts 118°
2026-05-03 22:05 37.61093 -122.36129 27 ft 2 kts 118°
2026-05-03 22:05 37.61084 -122.36107 27 ft 4 kts 118°
2026-05-03 22:06 37.61067 -122.36068 27 ft 6 kts 116°
2026-05-03 22:06 37.61054 -122.36015 26 ft 6 kts 90°
2026-05-03 22:06 37.61055 -122.35993 24 ft 2 kts 86°
2026-05-03 22:06 37.61060 -122.35960 25 ft 6 kts 64°
2026-05-03 22:07 37.61093 -122.35914 25 ft 7 kts 32°
2026-05-03 22:07 37.61094 -122.35913 27 ft 0 kts 31°
2026-05-03 22:08 37.61096 -122.35912 27 ft 1 kts 31°
2026-05-03 22:08 37.61113 -122.35899 27 ft 4 kts 31°
2026-05-03 22:08 37.61140 -122.35880 28 ft 4 kts 20°
2026-05-03 22:08 37.61166 -122.35877 26 ft 3 kts 338°
2026-05-03 22:09 37.61195 -122.35903 27 ft 7 kts 312°
2026-05-03 22:09 37.61226 -122.35968 24 ft 5 kts 294°
2026-05-03 22:09 37.61226 -122.35969 24 ft 0 kts 294°
2026-05-03 22:10 37.61246 -122.36022 24 ft 31 kts 297°
2026-05-03 22:11 37.61471 -122.36557 22 ft 105 kts 297°
2026-05-03 22:11 37.61902 -122.37582 27 ft 156 kts 297°
2026-05-03 22:11 37.62451 -122.38882 234 ft 173 kts 294°
2026-05-03 22:11 37.63012 -122.40193 762 ft 169 kts 295°
2026-05-03 22:12 37.63568 -122.41518 1193 ft 174 kts 295°
2026-05-03 22:12 37.64176 -122.42857 1626 ft 176 kts 297°
2026-05-03 22:12 37.64800 -122.44249 1839 ft 189 kts 295°
2026-05-03 22:12 37.65438 -122.45764 1933 ft 202 kts 295°
2026-05-03 22:13 37.66107 -122.47380 2053 ft 213 kts 295°
2026-05-03 22:13 37.66830 -122.49076 2157 ft 231 kts 296°
2026-05-03 22:13 37.67673 -122.50901 2396 ft 252 kts 306°
2026-05-03 22:13 37.69099 -122.52268 2902 ft 265 kts 336°
2026-05-03 22:14 37.70916 -122.52676 3639 ft 269 kts 356°
2026-05-03 22:14 37.72801 -122.52712 4332 ft 273 kts 359°
2026-05-03 22:14 37.74725 -122.52713 4965 ft 279 kts 360°
2026-05-03 22:14 37.76673 -122.52736 5634 ft 282 kts 359°
2026-05-03 22:15 37.78649 -122.52692 6261 ft 286 kts 11°
2026-05-03 22:15 37.80484 -122.51776 6917 ft 284 kts 38°
2026-05-03 22:15 37.81802 -122.49986 7595 ft 277 kts 64°
2026-05-03 22:15 37.82596 -122.47774 8246 ft 277 kts 72°
2026-05-03 22:16 37.83267 -122.45477 8927 ft 280 kts 73°
2026-05-03 22:16 37.83951 -122.43161 9645 ft 281 kts 75°
2026-05-03 22:16 37.84529 -122.40781 10231 ft 286 kts 76°
2026-05-03 22:16 37.85158 -122.38301 10400 ft 306 kts 74°
2026-05-03 22:17 37.85844 -122.35716 10563 ft 322 kts 74°
2026-05-03 22:17 37.86596 -122.32934 10845 ft 334 kts 74°
2026-05-03 22:17 37.87344 -122.30181 11350 ft 338 kts 74°
2026-05-03 22:17 37.88111 -122.27350 11884 ft 341 kts 73°
2026-05-03 22:18 37.88883 -122.24486 12402 ft 345 kts 74°
2026-05-03 22:18 37.89659 -122.21600 12958 ft 348 kts 74°
2026-05-03 22:18 37.90441 -122.18681 13464 ft 353 kts 74°
2026-05-03 22:18 37.91233 -122.15717 13907 ft 357 kts 73°
2026-05-03 22:19 37.92031 -122.12737 14471 ft 358 kts 74°
2026-05-03 22:19 37.92831 -122.09748 14978 ft 360 kts 73°
2026-05-03 22:19 37.93635 -122.06735 15479 ft 362 kts 74°
2026-05-03 22:19 37.94445 -122.03698 15936 ft 365 kts 74°
2026-05-03 22:20 37.95257 -122.00644 16458 ft 367 kts 74°
2026-05-03 22:20 37.96074 -121.97570 16958 ft 369 kts 74°
2026-05-03 22:20 37.96895 -121.94477 17457 ft 371 kts 74°
2026-05-03 22:20 37.97720 -121.91368 17968 ft 373 kts 74°
2026-05-03 22:21 37.98549 -121.88236 18407 ft 376 kts 74°
2026-05-03 22:21 37.99381 -121.85095 18852 ft 376 kts 74°
2026-05-03 22:21 38.00212 -121.81952 19295 ft 376 kts 74°
2026-05-03 22:21 38.01044 -121.78800 19715 ft 378 kts 74°
2026-05-03 22:22 38.01878 -121.75633 20107 ft 379 kts 74°
2026-05-03 22:22 38.02714 -121.72457 20548 ft 380 kts 75°
2026-05-03 22:22 38.03550 -121.69277 20978 ft 381 kts 75°
2026-05-03 22:22 38.04387 -121.66089 21397 ft 381 kts 75°
2026-05-03 22:23 38.05225 -121.62896 21800 ft 382 kts 75°
2026-05-03 22:23 38.06066 -121.59685 22216 ft 384 kts 75°
2026-05-03 22:23 38.06906 -121.56474 22624 ft 384 kts 75°
2026-05-03 22:23 38.07748 -121.53249 23020 ft 386 kts 75°
2026-05-03 22:24 38.08592 -121.50014 23414 ft 386 kts 75°
2026-05-03 22:24 38.09437 -121.46771 23772 ft 387 kts 75°
2026-05-03 22:24 38.10283 -121.43521 24118 ft 388 kts 75°
2026-05-03 22:24 38.11129 -121.40266 24462 ft 389 kts 75°
2026-05-03 22:25 38.11976 -121.37004 24799 ft 390 kts 75°
2026-05-03 22:25 38.12824 -121.33731 25148 ft 390 kts 75°
2026-05-03 22:25 38.13672 -121.30454 25504 ft 391 kts 75°
2026-05-03 22:25 38.14524 -121.27161 25886 ft 392 kts 75°
2026-05-03 22:26 38.15375 -121.23863 26241 ft 393 kts 74°
2026-05-03 22:26 38.16226 -121.20565 26680 ft 393 kts 74°
2026-05-03 22:26 38.17079 -121.17251 27042 ft 395 kts 74°
2026-05-03 22:26 38.17923 -121.13968 27423 ft 397 kts 74°
2026-05-03 22:27 38.18793 -121.10582 27816 ft 399 kts 74°
2026-05-03 22:27 38.19643 -121.07268 28207 ft 400 kts 74°
2026-05-03 22:27 38.20469 -121.03885 28592 ft 401 kts 77°
2026-05-03 22:27 38.21052 -121.00413 28979 ft 402 kts 81°
2026-05-03 22:28 38.21529 -120.96901 29363 ft 404 kts 81°
2026-05-03 22:28 38.22028 -120.93370 29707 ft 407 kts 80°
2026-05-03 22:28 38.22538 -120.89820 30089 ft 409 kts 79°
2026-05-03 22:28 38.23051 -120.86246 30366 ft 413 kts 80°
2026-05-03 22:29 38.23567 -120.82638 30623 ft 417 kts 80°
2026-05-03 22:29 38.24082 -120.79003 30885 ft 420 kts 80°
2026-05-03 22:29 38.24601 -120.75329 31144 ft 423 kts 81°
2026-05-03 22:29 38.25123 -120.71623 31416 ft 427 kts 81°
2026-05-03 22:30 38.25646 -120.67890 31681 ft 430 kts 81°
2026-05-03 22:30 38.26172 -120.64135 31923 ft 434 kts 81°
2026-05-03 22:30 38.26702 -120.60336 32193 ft 437 kts 81°
2026-05-03 22:30 38.27234 -120.56513 32440 ft 441 kts 81°
2026-05-03 22:31 38.27768 -120.52668 32700 ft 444 kts 81°
2026-05-03 22:31 38.28308 -120.48775 32959 ft 447 kts 82°
2026-05-03 22:31 38.28849 -120.44863 33204 ft 451 kts 82°
2026-05-03 22:31 38.29392 -120.40921 33458 ft 454 kts 82°
2026-05-03 22:32 38.29936 -120.36953 33779 ft 455 kts 81°
2026-05-03 22:32 38.30480 -120.32984 34070 ft 457 kts 81°
2026-05-03 22:32 38.31029 -120.28982 34210 ft 462 kts 81°
2026-05-03 22:32 38.31581 -120.24935 34403 ft 465 kts 81°
2026-05-03 22:33 38.32135 -120.20869 34630 ft 468 kts 81°
2026-05-03 22:33 38.32691 -120.16772 34867 ft 470 kts 81°
2026-05-03 22:33 38.33249 -120.12652 34965 ft 477 kts 82°
2026-05-03 22:34 38.34362 -120.04368 34967 ft 466 kts 80°
2026-05-03 22:34 38.35446 -119.96294 34970 ft 463 kts 80°
2026-05-03 22:35 38.36547 -119.88065 34981 ft 479 kts 82°
2026-05-03 22:35 38.37659 -119.79649 34974 ft 486 kts 81°
2026-05-03 22:36 38.38789 -119.71076 34960 ft 491 kts 81°
2026-05-03 22:36 38.39915 -119.62489 34966 ft 491 kts 81°
2026-05-03 22:37 38.41034 -119.53899 34944 ft 491 kts 81°
2026-05-03 22:37 38.42147 -119.45300 34922 ft 492 kts 81°
2026-05-03 22:38 38.43254 -119.36700 34919 ft 491 kts 81°
2026-05-03 22:38 38.44352 -119.28123 34884 ft 489 kts 81°
2026-05-03 22:39 38.45442 -119.19564 34862 ft 489 kts 82°
2026-05-03 22:39 38.46530 -119.10948 34866 ft 498 kts 82°
2026-05-03 22:40 38.47625 -119.02231 34881 ft 497 kts 82°
2026-05-03 22:40 38.48715 -118.93503 34878 ft 498 kts 83°
2026-05-03 22:41 38.49802 -118.84745 34897 ft 503 kts 83°
2026-05-03 22:41 38.50889 -118.75926 34913 ft 501 kts 82°
2026-05-03 22:42 38.51965 -118.67147 34900 ft 499 kts 83°
2026-05-03 22:42 38.53030 -118.58411 34905 ft 497 kts 83°
2026-05-03 22:43 38.54084 -118.49690 34860 ft 497 kts 83°
2026-05-03 22:43 38.55129 -118.40983 34831 ft 496 kts 83°
2026-05-03 22:44 38.56171 -118.32270 34808 ft 496 kts 83°
2026-05-03 22:44 38.57210 -118.23543 34787 ft 497 kts 83°
2026-05-03 22:45 38.58067 -118.16272 34784 ft 498 kts 83°
2026-05-03 22:45 38.59096 -118.07490 34783 ft 500 kts 83°
2026-05-03 22:46 38.60123 -117.98675 34801 ft 506 kts 83°
2026-05-03 22:46 38.61165 -117.89679 34803 ft 514 kts 83°
2026-05-03 22:47 38.62204 -117.80656 34806 ft 513 kts 83°
2026-05-03 22:47 38.63235 -117.71631 34812 ft 513 kts 83°
2026-05-03 22:48 38.64259 -117.62606 34824 ft 513 kts 83°
2026-05-03 22:48 38.65275 -117.53585 34838 ft 513 kts 83°
2026-05-03 22:49 38.66286 -117.44545 34867 ft 513 kts 83°
2026-05-03 22:49 38.67289 -117.35513 34856 ft 513 kts 83°
2026-05-03 22:50 38.68318 -117.26491 34841 ft 512 kts 81°
2026-05-03 22:50 38.69694 -117.17551 34849 ft 512 kts 79°
2026-05-03 22:51 38.71086 -117.08676 34862 ft 512 kts 80°
2026-05-03 22:51 38.72440 -116.99734 34855 ft 511 kts 80°
2026-05-03 22:52 38.73772 -116.90784 34843 ft 512 kts 80°
2026-05-03 22:52 38.75093 -116.81835 34854 ft 511 kts 80°
2026-05-03 22:53 38.76409 -116.72883 34851 ft 511 kts 80°
2026-05-03 22:53 38.77719 -116.63918 34863 ft 512 kts 80°
2026-05-03 22:54 38.79022 -116.54945 34871 ft 512 kts 80°
2026-05-03 22:54 38.80319 -116.45968 34868 ft 512 kts 80°
2026-05-03 22:55 38.81611 -116.36980 34856 ft 513 kts 80°
2026-05-03 22:55 38.82895 -116.27989 34866 ft 513 kts 80°
2026-05-03 22:56 38.84172 -116.18997 34852 ft 512 kts 80°
2026-05-03 22:56 38.85442 -116.10004 34842 ft 512 kts 80°
2026-05-03 22:57 38.86705 -116.01012 34824 ft 512 kts 80°
2026-05-03 22:57 38.87959 -115.92023 34833 ft 511 kts 80°
2026-05-03 22:58 38.89205 -115.83043 34822 ft 511 kts 80°
2026-05-03 22:58 38.90443 -115.74071 34814 ft 510 kts 80°
2026-05-03 22:59 38.91674 -115.65096 34809 ft 510 kts 80°
2026-05-03 22:59 38.92889 -115.56187 34822 ft 510 kts 80°
2026-05-03 23:00 38.94104 -115.47218 34824 ft 510 kts 80°
2026-05-03 23:00 38.95312 -115.38248 34839 ft 510 kts 80°
2026-05-03 23:01 38.96514 -115.29274 34835 ft 509 kts 80°
2026-05-03 23:01 38.97708 -115.20305 34837 ft 509 kts 80°
2026-05-03 23:02 38.98894 -115.11339 34849 ft 509 kts 80°
2026-05-03 23:02 39.00073 -115.02369 34860 ft 509 kts 81°
2026-05-03 23:03 39.01246 -114.93394 34887 ft 509 kts 80°
2026-05-03 23:03 39.02412 -114.84415 34893 ft 509 kts 80°
2026-05-03 23:04 39.03571 -114.75435 34895 ft 509 kts 80°
2026-05-03 23:04 39.04724 -114.66441 34889 ft 510 kts 81°
2026-05-03 23:05 39.05871 -114.57437 34881 ft 510 kts 81°
2026-05-03 23:05 39.07012 -114.48429 34853 ft 510 kts 81°
2026-05-03 23:06 39.08146 -114.39418 34858 ft 510 kts 81°
2026-05-03 23:06 39.09273 -114.30399 34857 ft 510 kts 81°
2026-05-03 23:07 39.10392 -114.21385 34854 ft 510 kts 81°
2026-05-03 23:07 39.11507 -114.12345 34848 ft 510 kts 81°
2026-05-03 23:08 39.12613 -114.03322 34847 ft 510 kts 81°
2026-05-03 23:08 39.13712 -113.94298 34840 ft 510 kts 81°
2026-05-03 23:09 39.14804 -113.85271 34840 ft 510 kts 81°
2026-05-03 23:09 39.15888 -113.76244 34837 ft 510 kts 81°
2026-05-03 23:10 39.16965 -113.67215 34848 ft 510 kts 81°
2026-05-03 23:10 39.18035 -113.58190 34851 ft 509 kts 81°
2026-05-03 23:11 39.19097 -113.49165 34844 ft 509 kts 81°
2026-05-03 23:11 39.20152 -113.40141 34852 ft 509 kts 81°
2026-05-03 23:12 39.21200 -113.31117 34855 ft 509 kts 81°
2026-05-03 23:12 39.22240 -113.22092 34839 ft 508 kts 81°
2026-05-03 23:13 39.23273 -113.13074 34838 ft 508 kts 81°
2026-05-03 23:13 39.24297 -113.04058 34837 ft 508 kts 81°
2026-05-03 23:14 39.25314 -112.95050 34830 ft 507 kts 81°
2026-05-03 23:14 39.26325 -112.86038 34827 ft 507 kts 81°
2026-05-03 23:15 39.27326 -112.77042 34833 ft 506 kts 81°
2026-05-03 23:15 39.28319 -112.68049 34824 ft 506 kts 81°
2026-05-03 23:16 39.29311 -112.59048 34834 ft 507 kts 81°
2026-05-03 23:16 39.31099 -112.50297 34840 ft 504 kts 65°
2026-05-03 23:17 39.34540 -112.42538 34884 ft 501 kts 53°
2026-05-03 23:17 39.38517 -112.35145 34877 ft 501 kts 53°
2026-05-03 23:18 39.42476 -112.27735 34885 ft 501 kts 53°
2026-05-03 23:18 39.46438 -112.20319 34883 ft 501 kts 53°
2026-05-03 23:19 39.50393 -112.12901 34877 ft 501 kts 53°
2026-05-03 23:19 39.54343 -112.05469 34881 ft 501 kts 54°
2026-05-03 23:20 39.58292 -111.98021 34877 ft 501 kts 54°
2026-05-03 23:20 39.62238 -111.90562 34898 ft 502 kts 54°
2026-05-03 23:21 39.66181 -111.83090 34901 ft 502 kts 54°
2026-05-03 23:21 39.70138 -111.75579 34882 ft 508 kts 55°
2026-05-03 23:22 39.76185 -111.64058 34916 ft 516 kts 55°
2026-05-03 23:22 39.80223 -111.56343 34917 ft 516 kts 55°
2026-05-03 23:23 39.84229 -111.48668 34919 ft 516 kts 55°
2026-05-03 23:23 39.88255 -111.40938 34918 ft 516 kts 55°
2026-05-03 23:24 39.92274 -111.33202 34935 ft 516 kts 55°
2026-05-03 23:24 39.96292 -111.25452 34939 ft 516 kts 55°
2026-05-03 23:25 40.00307 -111.17684 34941 ft 517 kts 56°
2026-05-03 23:25 40.04309 -111.09922 34981 ft 515 kts 55°
2026-05-03 23:26 40.08294 -111.02177 34964 ft 513 kts 55°
2026-05-03 23:26 40.12261 -110.94447 34948 ft 511 kts 55°
2026-05-03 23:27 40.16209 -110.86735 34933 ft 510 kts 55°
2026-05-03 23:27 40.20147 -110.79023 34920 ft 510 kts 55°
2026-05-03 23:28 40.24080 -110.71302 34900 ft 510 kts 55°
2026-05-03 23:28 40.28013 -110.63563 34904 ft 511 kts 56°
2026-05-03 23:29 40.31947 -110.55803 34899 ft 512 kts 56°
2026-05-03 23:29 40.35882 -110.48020 34913 ft 513 kts 56°
2026-05-03 23:30 40.39826 -110.40199 34904 ft 515 kts 55°
2026-05-03 23:30 40.43773 -110.32356 34906 ft 516 kts 55°
2026-05-03 23:31 40.47727 -110.24478 34936 ft 517 kts 56°
2026-05-03 23:31 40.51651 -110.16638 34932 ft 517 kts 56°
2026-05-03 23:32 40.55621 -110.08685 34951 ft 516 kts 55°
2026-05-03 23:32 40.59528 -110.00841 34953 ft 515 kts 55°
2026-05-03 23:33 40.63443 -109.92960 34932 ft 514 kts 55°
2026-05-03 23:33 40.67346 -109.85084 34935 ft 513 kts 56°
2026-05-03 23:34 40.70605 -109.78492 34921 ft 512 kts 56°
2026-05-03 23:34 40.74480 -109.70635 34911 ft 510 kts 56°
2026-05-03 23:35 40.78340 -109.62789 34888 ft 509 kts 56°
2026-05-03 23:35 40.82191 -109.54941 34885 ft 509 kts 56°
2026-05-03 23:36 40.86033 -109.47091 34874 ft 509 kts 56°
2026-05-03 23:36 40.89849 -109.39276 34864 ft 510 kts 56°
2026-05-03 23:37 40.93695 -109.31379 34876 ft 511 kts 56°
2026-05-03 23:37 40.97547 -109.23448 34890 ft 513 kts 56°
2026-05-03 23:38 41.01400 -109.15494 34899 ft 514 kts 56°
2026-05-03 23:38 41.05255 -109.07517 34905 ft 514 kts 56°
2026-05-03 23:39 41.09103 -108.99533 34908 ft 514 kts 56°
2026-05-03 23:39 41.12950 -108.91531 34905 ft 514 kts 56°
2026-05-03 23:40 41.16787 -108.83527 34900 ft 513 kts 56°
2026-05-03 23:40 41.20613 -108.75526 34892 ft 513 kts 56°
2026-05-03 23:41 41.24431 -108.67521 34892 ft 513 kts 56°
2026-05-03 23:41 41.28242 -108.59510 34891 ft 513 kts 56°
2026-05-03 23:42 41.32050 -108.51485 34883 ft 513 kts 56°
2026-05-03 23:42 41.35854 -108.43447 34879 ft 513 kts 56°
2026-05-03 23:43 41.39653 -108.35397 34863 ft 514 kts 56°
2026-05-03 23:43 41.43449 -108.27333 34865 ft 514 kts 56°
2026-05-03 23:44 41.47242 -108.19254 34867 ft 514 kts 56°
2026-05-03 23:44 41.51030 -108.11164 34862 ft 514 kts 56°
2026-05-03 23:45 41.54814 -108.03059 34861 ft 515 kts 56°
2026-05-03 23:45 41.58594 -107.94944 34853 ft 515 kts 56°
2026-05-03 23:46 41.62367 -107.86819 34847 ft 515 kts 56°
2026-05-03 23:46 41.66139 -107.78678 34848 ft 515 kts 56°
2026-05-03 23:47 41.69908 -107.70528 34823 ft 515 kts 56°
2026-05-03 23:47 41.73674 -107.62370 34849 ft 515 kts 56°
2026-05-03 23:48 41.77520 -107.54278 34905 ft 514 kts 51°
2026-05-03 23:48 41.81799 -107.46711 34935 ft 513 kts 49°
2026-05-03 23:49 41.86117 -107.39092 34978 ft 514 kts 50°
2026-05-03 23:49 41.90394 -107.31389 34993 ft 515 kts 50°
2026-05-03 23:50 41.94656 -107.23660 34991 ft 515 kts 50°
2026-05-03 23:50 41.98922 -107.15904 34965 ft 516 kts 50°
2026-05-03 23:51 42.03181 -107.08143 34923 ft 516 kts 50°
2026-05-03 23:51 42.07434 -107.00367 34885 ft 516 kts 50°
2026-05-03 23:52 42.11682 -106.92574 34846 ft 516 kts 50°
2026-05-03 23:52 42.15918 -106.84779 34846 ft 516 kts 50°
2026-05-03 23:53 42.20150 -106.76971 34855 ft 516 kts 50°
2026-05-03 23:53 42.24380 -106.69146 34870 ft 516 kts 50°
2026-05-03 23:54 42.28604 -106.61314 34855 ft 516 kts 50°
2026-05-03 23:54 42.32824 -106.53468 34857 ft 516 kts 50°
2026-05-03 23:55 42.37007 -106.45670 34860 ft 516 kts 50°
2026-05-03 23:55 42.41212 -106.37812 34859 ft 516 kts 50°
2026-05-03 23:56 42.45414 -106.29936 34883 ft 516 kts 50°
2026-05-03 23:56 42.49603 -106.22066 34892 ft 514 kts 50°
2026-05-03 23:57 42.53775 -106.14206 34886 ft 513 kts 50°
2026-05-03 23:57 42.57933 -106.06354 34866 ft 512 kts 50°
2026-05-03 23:58 42.62076 -105.98510 34887 ft 511 kts 50°
2026-05-03 23:58 42.66210 -105.90660 34858 ft 511 kts 50°
2026-05-03 23:59 42.70336 -105.82807 34864 ft 510 kts 50°
2026-05-03 23:59 42.74455 -105.74945 34894 ft 510 kts 50°
2026-05-04 00:00 42.78561 -105.67089 34912 ft 509 kts 50°
2026-05-04 00:00 42.82654 -105.59235 34948 ft 507 kts 51°
2026-05-04 00:01 42.86727 -105.51399 34947 ft 506 kts 51°
2026-05-04 00:01 42.90786 -105.43568 34849 ft 505 kts 51°
2026-05-04 00:02 42.94832 -105.35745 34839 ft 504 kts 51°
2026-05-04 00:02 42.98861 -105.27932 34846 ft 503 kts 51°
2026-05-04 00:03 43.02882 -105.20116 34863 ft 502 kts 51°
2026-05-04 00:03 43.06881 -105.12319 34853 ft 501 kts 51°
2026-05-04 00:04 43.10871 -105.04522 34842 ft 499 kts 51°
2026-05-04 00:04 43.14847 -104.96731 34833 ft 499 kts 51°
2026-05-04 00:05 43.18810 -104.88947 34848 ft 498 kts 51°
2026-05-04 00:05 43.22761 -104.81163 34842 ft 497 kts 51°
2026-05-04 00:06 43.26701 -104.73382 34837 ft 497 kts 51°
2026-05-04 00:06 43.30628 -104.65605 34851 ft 495 kts 52°
2026-05-04 00:07 43.34541 -104.57836 34843 ft 494 kts 52°
2026-05-04 00:07 43.38443 -104.50069 34839 ft 493 kts 52°
2026-05-04 00:08 43.42313 -104.42345 34837 ft 493 kts 52°
2026-05-04 00:08 43.46200 -104.34566 34836 ft 494 kts 52°
2026-05-04 00:09 43.50086 -104.26769 34841 ft 494 kts 52°
2026-05-04 00:09 43.53964 -104.18968 34883 ft 493 kts 52°
2026-05-04 00:10 43.57831 -104.11165 34884 ft 492 kts 52°
2026-05-04 00:10 43.61678 -104.03385 34893 ft 490 kts 52°
2026-05-04 00:11 43.65514 -103.95606 34906 ft 489 kts 52°
2026-05-04 00:11 43.69336 -103.87834 34914 ft 488 kts 52°
2026-05-04 00:12 43.73145 -103.80069 34934 ft 488 kts 52°
2026-05-04 00:12 43.76943 -103.72306 34940 ft 487 kts 52°
2026-05-04 00:13 43.80733 -103.64540 34952 ft 487 kts 52°
2026-05-04 00:13 43.84517 -103.56763 34941 ft 486 kts 52°
2026-05-04 00:14 43.88291 -103.48987 34945 ft 486 kts 52°
2026-05-04 00:14 43.92061 -103.41199 34913 ft 487 kts 52°
2026-05-04 00:15 43.95827 -103.33398 34890 ft 487 kts 52°
2026-05-04 00:15 43.99590 -103.25582 34875 ft 487 kts 52°
2026-05-04 00:16 44.03345 -103.17762 34865 ft 487 kts 53°
2026-05-04 00:16 44.07098 -103.09925 34883 ft 487 kts 53°
2026-05-04 00:17 44.10846 -103.02078 34883 ft 487 kts 53°
2026-05-04 00:17 44.14589 -102.94219 34857 ft 487 kts 53°
2026-05-04 00:18 44.18329 -102.86345 34859 ft 487 kts 53°
2026-05-04 00:18 44.22060 -102.78468 34861 ft 487 kts 53°
2026-05-04 00:19 44.25791 -102.70571 34860 ft 487 kts 53°
2026-05-04 00:19 44.29510 -102.62678 34865 ft 487 kts 53°
2026-05-04 00:20 44.33228 -102.54764 34847 ft 487 kts 53°
2026-05-04 00:20 44.36316 -102.48175 34840 ft 488 kts 53°
2026-05-04 00:21 44.40028 -102.40236 34844 ft 488 kts 53°
2026-05-04 00:21 44.44335 -102.30995 34833 ft 488 kts 53°
2026-05-04 00:22 44.47437 -102.24323 34829 ft 488 kts 53°
2026-05-04 00:22 44.51130 -102.16358 34827 ft 488 kts 53°
2026-05-04 00:23 44.54822 -102.08372 34806 ft 488 kts 53°
2026-05-04 00:23 44.58481 -102.00435 34807 ft 488 kts 53°
2026-05-04 00:24 44.62158 -101.92438 34806 ft 488 kts 53°
2026-05-04 00:24 44.65827 -101.84436 34797 ft 487 kts 53°
2026-05-04 00:25 44.69488 -101.76431 34801 ft 487 kts 53°
2026-05-04 00:25 44.73147 -101.68407 34804 ft 487 kts 53°
2026-05-04 00:26 44.76797 -101.60380 34804 ft 487 kts 53°
2026-05-04 00:26 44.80442 -101.52342 34810 ft 487 kts 53°
2026-05-04 00:27 44.84079 -101.44298 34820 ft 487 kts 53°
2026-05-04 00:27 44.87706 -101.36254 34809 ft 486 kts 53°
2026-05-04 00:28 44.91325 -101.28205 34798 ft 485 kts 53°
2026-05-04 00:28 44.94932 -101.20160 34790 ft 485 kts 53°
2026-05-04 00:29 44.98532 -101.12108 34786 ft 485 kts 54°
2026-05-04 00:29 45.02124 -101.04049 34779 ft 484 kts 54°
2026-05-04 00:30 45.05709 -100.95986 34787 ft 484 kts 54°
2026-05-04 00:30 45.09282 -100.87926 34791 ft 483 kts 54°
2026-05-04 00:31 45.12843 -100.79870 34798 ft 482 kts 53°
2026-05-04 00:31 45.16398 -100.71806 34774 ft 482 kts 54°
2026-05-04 00:32 45.19936 -100.63756 34757 ft 481 kts 54°
2026-05-04 00:32 45.23462 -100.55712 34751 ft 480 kts 54°
2026-05-04 00:33 45.28735 -100.43637 34741 ft 480 kts 54°
2026-05-04 00:34 45.32246 -100.35567 34741 ft 480 kts 53°
2026-05-04 00:34 45.35750 -100.27494 34745 ft 479 kts 53°
2026-05-04 00:35 45.39245 -100.19417 34745 ft 479 kts 53°
2026-05-04 00:35 45.42735 -100.11329 34760 ft 480 kts 53°
2026-05-04 00:36 45.46225 -100.03219 34745 ft 480 kts 53°
2026-05-04 00:36 45.49712 -99.95090 34746 ft 481 kts 53°
2026-05-04 00:37 45.53192 -99.86956 34741 ft 481 kts 53°
2026-05-04 00:37 45.56669 -99.78802 34742 ft 481 kts 53°
2026-05-04 00:38 45.60146 -99.70627 34740 ft 482 kts 53°
2026-05-04 00:38 45.63614 -99.62449 34739 ft 481 kts 53°
2026-05-04 00:39 45.67051 -99.54319 34732 ft 481 kts 53°
2026-05-04 00:39 45.70506 -99.46122 34727 ft 481 kts 53°
2026-05-04 00:40 45.73952 -99.37924 34727 ft 481 kts 53°
2026-05-04 00:40 45.77388 -99.29726 34727 ft 481 kts 53°
2026-05-04 00:41 45.80838 -99.21469 34717 ft 482 kts 53°
2026-05-04 00:41 45.84279 -99.13211 34721 ft 483 kts 53°
2026-05-04 00:42 45.87718 -99.04931 34725 ft 484 kts 53°
2026-05-04 00:42 45.91187 -98.96555 34719 ft 485 kts 53°
2026-05-04 00:43 45.94604 -98.88279 34719 ft 485 kts 53°
2026-05-04 00:43 45.98035 -98.79945 34722 ft 485 kts 53°
2026-05-04 00:44 46.01472 -98.71573 34729 ft 486 kts 53°
2026-05-04 00:44 46.04898 -98.63198 34721 ft 486 kts 53°
2026-05-04 00:45 46.08329 -98.54788 34704 ft 487 kts 53°
2026-05-04 00:45 46.11761 -98.46350 34704 ft 488 kts 53°
2026-05-04 00:46 46.15191 -98.37892 34726 ft 489 kts 53°
2026-05-04 00:46 46.18618 -98.29414 34698 ft 489 kts 53°
2026-05-04 00:47 46.22039 -98.20925 34690 ft 489 kts 53°
2026-05-04 00:47 46.25456 -98.12418 34683 ft 489 kts 53°
2026-05-04 00:48 46.28867 -98.03902 34690 ft 489 kts 53°
2026-05-04 00:48 46.32276 -97.95363 34671 ft 491 kts 53°
2026-05-04 00:49 46.35689 -97.86789 34672 ft 492 kts 53°
2026-05-04 00:49 46.39100 -97.78193 34676 ft 493 kts 53°
2026-05-04 00:50 46.42512 -97.69566 34672 ft 494 kts 53°
2026-05-04 00:50 46.45923 -97.60913 34676 ft 494 kts 53°
2026-05-04 00:51 46.49326 -97.52256 34668 ft 494 kts 54°
2026-05-04 00:51 46.52726 -97.43578 34668 ft 494 kts 54°
2026-05-04 00:52 46.56119 -97.34894 34668 ft 494 kts 54°
2026-05-04 00:52 46.59509 -97.26202 34661 ft 495 kts 54°
2026-05-04 00:53 46.62900 -97.17486 34654 ft 495 kts 54°
2026-05-04 00:53 46.66270 -97.08798 34652 ft 495 kts 54°
2026-05-04 00:54 46.69644 -97.00070 34646 ft 495 kts 54°
2026-05-04 00:54 46.73013 -96.91325 34665 ft 495 kts 54°
2026-05-04 00:55 46.76364 -96.82554 34643 ft 494 kts 54°
2026-05-04 00:55 46.79970 -96.74052 34623 ft 492 kts 50°
2026-05-04 00:56 46.83666 -96.65631 34628 ft 493 kts 51°
2026-05-04 00:56 46.87328 -96.57133 34632 ft 495 kts 51°
2026-05-04 00:57 46.90974 -96.48596 34667 ft 495 kts 51°
2026-05-04 00:57 46.94616 -96.40034 34667 ft 495 kts 51°
2026-05-04 00:58 46.98249 -96.31462 34655 ft 495 kts 51°
2026-05-04 00:58 47.01871 -96.22879 34654 ft 496 kts 51°
2026-05-04 00:59 47.05497 -96.14262 34645 ft 497 kts 51°
2026-05-04 00:59 47.09121 -96.05618 34658 ft 497 kts 51°
2026-05-04 01:00 47.12736 -95.96969 34636 ft 497 kts 51°
2026-05-04 01:00 47.16345 -95.88307 34653 ft 497 kts 52°
2026-05-04 01:01 47.19949 -95.79631 34654 ft 498 kts 52°
2026-05-04 01:01 47.23549 -95.70935 34661 ft 497 kts 52°
2026-05-04 01:02 47.27142 -95.62229 34638 ft 498 kts 52°
2026-05-04 01:02 47.30726 -95.53516 34637 ft 497 kts 52°
2026-05-04 01:03 47.34308 -95.44783 34621 ft 497 kts 52°
2026-05-04 01:03 47.37880 -95.36046 34623 ft 498 kts 52°
2026-05-04 01:04 47.41449 -95.27285 34613 ft 498 kts 52°
2026-05-04 01:04 47.45008 -95.18522 34598 ft 497 kts 52°
2026-05-04 01:05 47.47962 -95.11228 34603 ft 497 kts 52°
2026-05-04 01:05 47.51509 -95.02443 34598 ft 498 kts 52°
2026-05-04 01:06 47.55055 -94.93634 34608 ft 498 kts 52°
2026-05-04 01:06 47.58595 -94.84807 34607 ft 498 kts 52°
2026-05-04 01:07 47.62130 -94.75967 34598 ft 499 kts 52°
2026-05-04 01:07 47.65657 -94.67116 34569 ft 499 kts 52°
2026-05-04 01:08 47.69182 -94.58244 34575 ft 499 kts 52°
2026-05-04 01:08 47.72699 -94.49359 34553 ft 500 kts 52°
2026-05-04 01:09 47.76222 -94.40430 34562 ft 501 kts 52°
2026-05-04 01:09 47.79738 -94.31490 34571 ft 501 kts 52°
2026-05-04 01:10 47.83252 -94.22524 34568 ft 502 kts 52°
2026-05-04 01:10 47.86738 -94.13603 34581 ft 502 kts 53°
2026-05-04 01:11 47.90262 -94.04553 34570 ft 502 kts 53°
2026-05-04 01:11 47.93732 -93.95611 34568 ft 502 kts 53°
2026-05-04 01:12 47.97223 -93.86585 34563 ft 503 kts 53°
2026-05-04 01:12 48.00715 -93.77525 34559 ft 504 kts 53°
2026-05-04 01:13 48.04203 -93.68445 34569 ft 504 kts 53°
2026-05-04 01:13 48.07687 -93.59343 34573 ft 505 kts 53°
2026-05-04 01:14 48.11167 -93.50222 34582 ft 505 kts 53°
2026-05-04 01:14 48.14644 -93.41078 34608 ft 505 kts 53°
2026-05-04 01:15 48.18112 -93.31923 34618 ft 506 kts 53°
2026-05-04 01:15 48.21587 -93.22723 34588 ft 507 kts 53°
2026-05-04 01:16 48.25049 -93.13522 34587 ft 508 kts 53°
2026-05-04 01:16 48.28517 -93.04274 34586 ft 508 kts 53°
2026-05-04 01:17 48.31979 -92.95009 34595 ft 508 kts 53°
2026-05-04 01:17 48.35430 -92.85739 34597 ft 508 kts 53°
2026-05-04 01:18 48.38872 -92.76464 34579 ft 508 kts 53°
2026-05-04 01:18 48.42309 -92.67171 34581 ft 509 kts 53°
2026-05-04 01:19 48.45741 -92.57856 34588 ft 509 kts 54°
2026-05-04 01:19 48.49171 -92.48511 34576 ft 509 kts 54°
2026-05-04 01:20 48.52592 -92.39160 34580 ft 509 kts 54°
2026-05-04 01:20 48.56004 -92.29799 34570 ft 509 kts 54°
2026-05-04 01:21 48.59413 -92.20416 34578 ft 510 kts 54°
2026-05-04 01:21 48.62813 -92.11021 34583 ft 510 kts 54°
2026-05-04 01:22 48.66217 -92.01584 34570 ft 511 kts 54°
2026-05-04 01:22 48.69611 -91.92136 34573 ft 511 kts 54°
2026-05-04 01:23 48.72997 -91.82678 34577 ft 512 kts 54°
2026-05-04 01:23 48.76387 -91.73178 34609 ft 512 kts 54°
2026-05-04 01:24 48.79767 -91.63666 34589 ft 513 kts 54°
2026-05-04 01:24 48.83142 -91.54135 34590 ft 513 kts 54°
2026-05-04 01:25 48.86508 -91.44593 34587 ft 513 kts 54°
2026-05-04 01:25 48.89864 -91.35046 34588 ft 512 kts 55°
2026-05-04 01:26 48.93216 -91.25476 34588 ft 513 kts 55°
2026-05-04 01:26 48.96528 -91.15984 34589 ft 512 kts 55°
2026-05-04 01:27 48.99888 -91.06319 34584 ft 512 kts 55°
2026-05-04 01:27 49.03189 -90.96787 34588 ft 512 kts 55°
2026-05-04 01:28 49.06505 -90.87179 34608 ft 512 kts 55°
2026-05-04 01:28 49.09816 -90.77549 34586 ft 513 kts 55°
2026-05-04 01:29 49.13125 -90.67887 34591 ft 514 kts 55°
2026-05-04 01:29 49.16427 -90.58209 34594 ft 514 kts 56°
2026-05-04 01:30 49.19722 -90.48515 34595 ft 514 kts 56°
2026-05-04 01:30 49.23014 -90.38791 34612 ft 514 kts 56°
2026-05-04 01:31 49.26292 -90.29070 34602 ft 514 kts 56°
2026-05-04 01:31 49.29561 -90.19344 34601 ft 513 kts 56°
2026-05-04 01:32 49.32844 -90.09538 34587 ft 514 kts 56°
2026-05-04 01:32 49.36095 -89.99787 34593 ft 514 kts 56°
2026-05-04 01:33 49.39319 -89.90084 34595 ft 513 kts 56°
2026-05-04 01:33 49.42549 -89.80320 34589 ft 513 kts 56°
2026-05-04 01:34 49.45769 -89.70551 34581 ft 512 kts 56°
2026-05-04 01:34 49.48983 -89.60763 34580 ft 512 kts 57°
2026-05-04 01:35 49.52187 -89.50968 34584 ft 513 kts 57°
2026-05-04 01:35 49.55392 -89.41137 34575 ft 514 kts 57°
2026-05-04 01:36 49.58591 -89.31278 34578 ft 515 kts 57°
2026-05-04 01:36 49.61790 -89.21382 34581 ft 516 kts 57°
2026-05-04 01:37 49.64982 -89.11466 34588 ft 517 kts 57°
2026-05-04 01:37 49.68165 -89.01539 34628 ft 515 kts 58°
2026-05-04 01:38 49.71327 -88.91637 34621 ft 513 kts 58°
2026-05-04 01:38 49.74471 -88.81756 34628 ft 512 kts 58°
2026-05-04 01:39 49.77605 -88.71871 34602 ft 512 kts 58°
2026-05-04 01:39 49.80725 -88.61988 34610 ft 511 kts 58°
2026-05-04 01:40 49.83831 -88.52111 34618 ft 509 kts 58°
2026-05-04 01:40 49.86918 -88.42251 34604 ft 508 kts 59°
2026-05-04 01:41 49.89997 -88.32395 34603 ft 507 kts 59°
2026-05-04 01:41 49.93066 -88.22545 34599 ft 507 kts 59°
2026-05-04 01:42 49.96124 -88.12697 34633 ft 506 kts 59°
2026-05-04 01:42 49.99169 -88.02848 34620 ft 505 kts 59°
2026-05-04 01:43 50.02488 -87.93311 34612 ft 497 kts 51°
2026-05-04 01:43 50.06445 -87.84520 34595 ft 496 kts 50°
2026-05-04 01:44 50.10339 -87.75655 34593 ft 496 kts 51°
2026-05-04 01:44 50.14161 -87.66695 34587 ft 497 kts 51°
2026-05-04 01:45 50.17969 -87.57694 34603 ft 497 kts 52°
2026-05-04 01:45 50.23677 -87.44140 34598 ft 498 kts 52°
2026-05-04 01:46 50.27475 -87.35071 34603 ft 499 kts 52°
2026-05-04 01:46 50.31245 -87.26033 34608 ft 500 kts 52°
2026-05-04 01:47 50.35040 -87.16902 34614 ft 501 kts 52°
2026-05-04 01:47 50.38828 -87.07755 34629 ft 501 kts 52°
2026-05-04 01:48 50.42613 -86.98585 34608 ft 501 kts 52°
2026-05-04 01:48 50.46393 -86.89392 34608 ft 501 kts 52°
2026-05-04 01:49 50.50165 -86.80190 34605 ft 501 kts 52°
2026-05-04 01:49 50.53930 -86.70971 34602 ft 502 kts 53°
2026-05-04 01:50 50.57692 -86.61727 34598 ft 501 kts 53°
2026-05-04 01:50 50.60811 -86.54038 34611 ft 502 kts 53°
2026-05-04 01:51 50.64557 -86.44773 34604 ft 501 kts 53°
2026-05-04 01:51 50.68260 -86.35584 34603 ft 502 kts 53°
2026-05-04 01:52 50.71996 -86.26278 34603 ft 502 kts 53°
2026-05-04 01:52 50.75725 -86.16956 34588 ft 502 kts 54°
2026-05-04 01:53 50.79449 -86.07613 34589 ft 503 kts 54°
2026-05-04 01:53 50.83170 -85.98246 34600 ft 503 kts 54°
2026-05-04 01:54 50.86888 -85.88850 34598 ft 503 kts 54°
2026-05-04 01:54 50.90596 -85.79445 34602 ft 504 kts 54°
2026-05-04 01:55 50.94299 -85.70021 34600 ft 504 kts 54°
2026-05-04 01:55 50.97994 -85.60581 34601 ft 504 kts 54°
2026-05-04 01:56 51.01681 -85.51125 34598 ft 504 kts 54°
2026-05-04 01:56 51.05362 -85.41655 34601 ft 504 kts 55°
2026-05-04 01:57 51.09034 -85.32168 34600 ft 504 kts 55°
2026-05-04 01:57 51.12676 -85.22728 34607 ft 504 kts 55°
2026-05-04 01:58 51.16337 -85.13203 34603 ft 504 kts 55°
2026-05-04 01:58 51.19991 -85.03660 34602 ft 504 kts 55°
2026-05-04 01:59 51.23639 -84.94097 34612 ft 505 kts 56°
2026-05-04 01:59 51.27285 -84.84506 34604 ft 505 kts 56°
2026-05-04 02:00 51.30920 -84.74904 34600 ft 505 kts 56°
2026-05-04 02:00 51.34550 -84.65282 34603 ft 505 kts 56°
2026-05-04 02:01 51.38172 -84.55644 34603 ft 506 kts 56°
2026-05-04 02:01 51.41790 -84.45981 34605 ft 506 kts 56°
2026-05-04 02:02 51.45399 -84.36305 34603 ft 506 kts 56°
2026-05-04 02:02 51.49005 -84.26599 34597 ft 506 kts 56°
2026-05-04 02:03 51.52605 -84.16876 34593 ft 507 kts 57°
2026-05-04 02:03 51.56198 -84.07133 34589 ft 507 kts 57°
2026-05-04 02:04 51.59781 -83.97377 34596 ft 507 kts 57°
2026-05-04 02:04 51.63336 -83.87661 34603 ft 507 kts 57°
2026-05-04 02:05 51.66909 -83.77861 34601 ft 507 kts 57°
2026-05-04 02:05 51.70476 -83.68038 34594 ft 508 kts 58°
2026-05-04 02:06 51.74031 -83.58210 34589 ft 508 kts 58°
2026-05-04 02:06 51.77581 -83.48359 34589 ft 508 kts 58°
2026-05-04 02:07 51.81124 -83.38486 34591 ft 508 kts 58°
2026-05-04 02:07 51.84658 -83.28600 34592 ft 508 kts 58°
2026-05-04 02:08 51.88184 -83.18702 34593 ft 508 kts 58°
2026-05-04 02:08 51.91699 -83.08792 34588 ft 507 kts 59°
2026-05-04 02:09 51.95201 -82.98879 34584 ft 507 kts 59°
2026-05-04 02:09 51.98692 -82.88960 34583 ft 506 kts 59°
2026-05-04 02:10 52.02172 -82.79034 34581 ft 506 kts 59°
2026-05-04 02:10 52.05645 -82.69086 34578 ft 506 kts 59°
2026-05-04 02:11 52.09108 -82.59131 34575 ft 506 kts 59°
2026-05-04 02:11 52.12566 -82.49149 34580 ft 507 kts 59°
2026-05-04 02:12 52.16016 -82.39148 34584 ft 507 kts 59°
2026-05-04 02:12 52.19460 -82.29124 34586 ft 507 kts 59°
2026-05-04 02:13 52.22899 -82.19078 34590 ft 507 kts 60°
2026-05-04 02:13 52.26304 -82.09090 34600 ft 507 kts 60°
2026-05-04 02:14 52.29727 -81.99011 34598 ft 507 kts 60°
2026-05-04 02:14 52.33137 -81.88923 34596 ft 507 kts 60°
2026-05-04 02:15 52.36541 -81.78816 34596 ft 507 kts 60°
2026-05-04 02:15 52.39931 -81.68709 34595 ft 507 kts 60°
2026-05-04 02:16 52.43314 -81.58581 34591 ft 507 kts 60°
2026-05-04 02:16 52.46687 -81.48441 34585 ft 507 kts 61°
2026-05-04 02:17 52.50044 -81.38311 34593 ft 507 kts 61°
2026-05-04 02:17 52.53418 -81.28085 34594 ft 508 kts 61°
2026-05-04 02:18 52.56775 -81.17867 34597 ft 508 kts 61°
2026-05-04 02:18 52.60124 -81.07631 34604 ft 508 kts 61°
2026-05-04 02:19 52.63464 -80.97381 34605 ft 509 kts 61°
2026-05-04 02:19 52.66797 -80.87110 34614 ft 508 kts 62°
2026-05-04 02:20 52.70120 -80.76828 34616 ft 508 kts 62°
2026-05-04 02:20 52.73433 -80.66531 34621 ft 508 kts 62°
2026-05-04 02:21 52.76712 -80.56298 34609 ft 508 kts 62°
2026-05-04 02:21 52.80001 -80.45991 34623 ft 507 kts 62°
2026-05-04 02:22 52.83280 -80.35670 34613 ft 507 kts 62°
2026-05-04 02:22 52.86551 -80.25333 34633 ft 507 kts 62°
2026-05-04 02:23 52.89811 -80.14984 34625 ft 507 kts 62°
2026-05-04 02:23 52.93060 -80.04625 34625 ft 506 kts 62°
2026-05-04 02:24 52.96297 -79.94265 34633 ft 506 kts 62°
2026-05-04 02:24 52.99528 -79.83877 34633 ft 506 kts 63°
2026-05-04 02:25 53.02748 -79.73480 34632 ft 506 kts 63°
2026-05-04 02:25 53.05959 -79.63067 34636 ft 506 kts 63°
2026-05-04 02:26 53.09161 -79.52636 34634 ft 506 kts 63°
2026-05-04 02:26 53.12355 -79.42190 34638 ft 507 kts 63°
2026-05-04 02:27 53.15519 -79.31795 34642 ft 507 kts 63°
2026-05-04 02:27 53.18696 -79.21309 34644 ft 507 kts 63°
2026-05-04 02:28 53.21864 -79.10811 34642 ft 507 kts 63°
2026-05-04 02:28 53.25025 -79.00287 34649 ft 507 kts 63°
2026-05-04 02:29 53.28172 -78.89764 34649 ft 507 kts 63°
2026-05-04 02:29 53.31311 -78.79221 34656 ft 506 kts 63°
2026-05-04 02:30 53.34441 -78.68665 34663 ft 506 kts 63°
2026-05-04 02:30 53.37561 -78.58094 34673 ft 506 kts 64°
2026-05-04 02:31 53.40671 -78.47508 34675 ft 506 kts 64°
2026-05-04 02:31 53.43770 -78.36913 34689 ft 506 kts 64°
2026-05-04 02:32 53.46861 -78.26297 34688 ft 506 kts 64°
2026-05-04 02:32 53.49944 -78.15672 34687 ft 506 kts 64°
2026-05-04 02:33 53.53024 -78.05032 34701 ft 506 kts 64°
2026-05-04 02:33 53.56095 -77.94382 34704 ft 506 kts 64°
2026-05-04 02:34 53.59159 -77.83709 34712 ft 507 kts 64°
2026-05-04 02:34 53.62216 -77.73010 34691 ft 507 kts 65°
2026-05-04 02:35 53.65557 -77.62646 34685 ft 507 kts 58°
2026-05-04 02:35 53.69294 -77.52567 34688 ft 507 kts 58°
2026-05-04 02:36 53.72975 -77.42420 34697 ft 507 kts 59°
2026-05-04 02:36 53.76615 -77.32204 34704 ft 507 kts 59°
2026-05-04 02:37 53.80239 -77.21954 34720 ft 508 kts 59°
2026-05-04 02:37 53.83857 -77.11670 34733 ft 508 kts 59°
2026-05-04 02:38 53.87456 -77.01389 34734 ft 509 kts 60°
2026-05-04 02:38 53.91063 -76.91044 34733 ft 509 kts 60°
2026-05-04 02:39 53.94656 -76.80696 34738 ft 509 kts 60°
2026-05-04 02:39 53.98238 -76.70338 34731 ft 509 kts 60°
2026-05-04 02:40 54.01811 -76.59958 34733 ft 509 kts 60°
2026-05-04 02:40 54.05377 -76.49557 34737 ft 509 kts 60°
2026-05-04 02:41 54.08935 -76.39136 34736 ft 509 kts 60°
2026-05-04 02:41 54.12440 -76.28827 34741 ft 509 kts 60°
2026-05-04 02:42 54.15431 -76.19994 34749 ft 509 kts 60°
2026-05-04 02:42 54.18967 -76.09513 34741 ft 510 kts 60°
2026-05-04 02:43 54.22497 -75.99003 34748 ft 510 kts 61°
2026-05-04 02:43 54.26018 -75.88474 34744 ft 510 kts 61°
2026-05-04 02:44 54.29519 -75.77960 34754 ft 511 kts 61°
2026-05-04 02:44 54.33027 -75.67379 34755 ft 511 kts 61°
2026-05-04 02:45 54.36520 -75.56798 34758 ft 511 kts 61°
2026-05-04 02:45 54.40017 -75.46159 34765 ft 511 kts 61°
2026-05-04 02:46 54.43497 -75.35527 34756 ft 511 kts 62°
2026-05-04 02:46 54.46966 -75.24876 34759 ft 511 kts 62°
2026-05-04 02:47 54.50428 -75.14203 34762 ft 511 kts 62°
2026-05-04 02:47 54.53881 -75.03511 34763 ft 511 kts 62°
2026-05-04 02:48 54.57324 -74.92802 34769 ft 511 kts 62°
2026-05-04 02:48 54.60759 -74.82075 34769 ft 511 kts 62°
2026-05-04 02:49 54.64181 -74.71337 34762 ft 510 kts 63°
2026-05-04 02:49 54.67592 -74.60582 34764 ft 511 kts 63°
2026-05-04 02:50 54.70994 -74.49811 34767 ft 511 kts 63°
2026-05-04 02:50 54.74392 -74.39002 34776 ft 511 kts 63°
2026-05-04 02:51 54.77782 -74.28175 34783 ft 512 kts 63°
2026-05-04 02:51 54.81164 -74.17320 34785 ft 512 kts 63°
2026-05-04 02:52 54.84535 -74.06452 34765 ft 512 kts 63°
2026-05-04 02:52 54.87895 -73.95569 34774 ft 512 kts 64°
2026-05-04 02:53 54.91249 -73.84656 34779 ft 512 kts 64°
2026-05-04 02:53 54.94572 -73.73797 34781 ft 512 kts 64°
2026-05-04 02:54 54.97910 -73.62834 34781 ft 513 kts 64°
2026-05-04 02:54 55.01239 -73.51852 34788 ft 513 kts 64°
2026-05-04 02:55 55.06217 -73.35337 34794 ft 513 kts 64°
2026-05-04 02:56 55.09522 -73.24308 34786 ft 513 kts 64°
2026-05-04 02:56 55.12815 -73.13266 34785 ft 513 kts 64°
2026-05-04 02:57 55.16101 -73.02198 34784 ft 513 kts 65°
2026-05-04 02:57 55.19375 -72.91118 34781 ft 513 kts 65°
2026-05-04 02:58 55.22639 -72.80018 34783 ft 512 kts 65°
2026-05-04 02:58 55.25892 -72.68902 34784 ft 512 kts 65°
2026-05-04 02:59 55.29133 -72.57775 34777 ft 512 kts 65°
2026-05-04 02:59 55.32364 -72.46631 34782 ft 512 kts 65°
2026-05-04 03:00 55.35584 -72.35472 34784 ft 512 kts 65°
2026-05-04 03:00 55.38793 -72.24298 34787 ft 512 kts 65°
2026-05-04 03:01 55.41992 -72.13102 34791 ft 512 kts 66°
2026-05-04 03:01 55.45180 -72.01894 34779 ft 512 kts 66°
2026-05-04 03:02 55.48357 -71.90667 34767 ft 512 kts 66°
2026-05-04 03:02 55.51506 -71.79489 34782 ft 512 kts 66°
2026-05-04 03:03 55.54665 -71.68219 34787 ft 513 kts 66°
2026-05-04 03:03 55.57817 -71.56917 34791 ft 513 kts 66°
2026-05-04 03:04 55.60961 -71.45590 34792 ft 513 kts 66°
2026-05-04 03:04 55.64096 -71.34238 34804 ft 514 kts 66°
2026-05-04 03:05 55.67222 -71.22864 34795 ft 513 kts 67°
2026-05-04 03:05 55.70332 -71.11495 34792 ft 513 kts 67°
2026-05-04 03:06 55.73434 -71.00093 34799 ft 514 kts 67°
2026-05-04 03:06 55.76530 -70.88658 34802 ft 514 kts 67°
2026-05-04 03:07 55.79615 -70.77204 34800 ft 514 kts 67°
2026-05-04 03:07 55.82691 -70.65729 34814 ft 514 kts 68°
2026-05-04 03:08 55.85754 -70.54245 34815 ft 514 kts 68°
2026-05-04 03:08 55.88787 -70.42817 34795 ft 514 kts 68°
2026-05-04 03:09 55.91851 -70.31214 34806 ft 514 kts 68°
2026-05-04 03:09 55.94894 -70.19663 34826 ft 515 kts 68°
2026-05-04 03:10 55.97933 -70.08081 34835 ft 516 kts 68°
2026-05-04 03:10 56.01000 -69.96486 34817 ft 517 kts 65°
2026-05-04 03:11 56.04750 -69.85472 34829 ft 519 kts 60°
2026-05-04 03:11 56.08597 -69.74550 34835 ft 519 kts 61°
2026-05-04 03:12 56.12357 -69.63526 34816 ft 519 kts 62°
2026-05-04 03:12 56.16081 -69.52439 34826 ft 519 kts 62°
2026-05-04 03:13 56.19795 -69.41308 34835 ft 520 kts 62°
2026-05-04 03:13 56.23479 -69.30214 34841 ft 521 kts 62°
2026-05-04 03:14 56.27179 -69.19023 34845 ft 521 kts 63°
2026-05-04 03:14 56.30872 -69.07802 34847 ft 521 kts 63°
2026-05-04 03:15 56.34550 -68.96575 34847 ft 520 kts 63°
2026-05-04 03:15 56.38221 -68.85317 34847 ft 520 kts 63°
2026-05-04 03:16 56.41877 -68.74049 34829 ft 521 kts 63°
2026-05-04 03:16 56.45532 -68.62732 34837 ft 522 kts 63°
2026-05-04 03:17 56.49176 -68.51394 34844 ft 523 kts 63°
2026-05-04 03:17 56.52826 -68.39986 34861 ft 523 kts 64°
2026-05-04 03:18 56.56463 -68.28562 34864 ft 523 kts 64°
2026-05-04 03:18 56.60087 -68.17124 34867 ft 523 kts 64°
2026-05-04 03:19 56.63701 -68.05664 34865 ft 523 kts 64°
2026-05-04 03:19 56.67302 -67.94190 34838 ft 523 kts 64°
2026-05-04 03:20 56.70894 -67.82685 34845 ft 524 kts 64°
2026-05-04 03:20 56.74488 -67.71118 34858 ft 525 kts 64°
2026-05-04 03:21 56.78076 -67.59515 34867 ft 526 kts 64°
2026-05-04 03:21 56.81660 -67.47870 34872 ft 526 kts 65°
2026-05-04 03:22 56.85233 -67.36201 34874 ft 527 kts 65°
2026-05-04 03:22 56.88794 -67.24515 34871 ft 526 kts 65°
2026-05-04 03:23 56.92345 -67.12802 34865 ft 526 kts 65°
2026-05-04 03:23 56.95882 -67.01077 34851 ft 526 kts 65°
2026-05-04 03:24 56.99414 -66.89308 34854 ft 527 kts 65°
2026-05-04 03:24 57.02918 -66.77575 34858 ft 528 kts 65°
2026-05-04 03:25 57.06440 -66.65724 34863 ft 529 kts 65°
2026-05-04 03:25 57.09954 -66.53838 34869 ft 529 kts 65°
2026-05-04 03:26 57.13455 -66.41937 34875 ft 528 kts 65°
2026-05-04 03:26 57.16939 -66.30033 34876 ft 527 kts 65°
2026-05-04 03:27 57.20406 -66.18125 34840 ft 527 kts 66°
2026-05-04 03:27 57.23863 -66.06190 34850 ft 528 kts 66°
2026-05-04 03:28 57.27313 -65.94217 34864 ft 528 kts 66°
2026-05-04 03:28 57.30752 -65.82221 34887 ft 528 kts 66°
2026-05-04 03:29 57.34180 -65.70201 34885 ft 528 kts 66°
2026-05-04 03:29 57.37593 -65.58171 34890 ft 528 kts 66°
2026-05-04 03:30 57.40423 -65.48149 34890 ft 527 kts 66°
2026-05-04 03:30 57.43810 -65.36093 34889 ft 527 kts 66°
2026-05-04 03:31 57.47189 -65.24008 34854 ft 527 kts 67°
2026-05-04 03:31 57.50556 -65.11896 34885 ft 528 kts 67°
2026-05-04 03:32 57.53923 -64.99719 34893 ft 529 kts 67°
2026-05-04 03:32 57.57283 -64.87506 34909 ft 530 kts 67°
2026-05-04 03:33 57.60635 -64.75259 34911 ft 530 kts 67°
2026-05-04 03:33 57.63973 -64.62994 34922 ft 530 kts 67°
2026-05-04 03:34 57.67299 -64.50708 34926 ft 530 kts 67°
2026-05-04 03:34 57.70610 -64.38409 34927 ft 529 kts 67°
2026-05-04 03:35 57.73906 -64.26100 34922 ft 529 kts 68°
2026-05-04 03:35 57.77166 -64.13862 34922 ft 528 kts 68°
2026-05-04 03:36 57.80431 -64.01534 34923 ft 528 kts 68°
2026-05-04 03:36 57.83681 -63.89197 34921 ft 527 kts 68°
2026-05-04 03:37 57.86920 -63.76831 34914 ft 527 kts 68°
2026-05-04 03:37 57.90143 -63.64462 34910 ft 527 kts 68°
2026-05-04 03:38 57.93355 -63.52072 34911 ft 527 kts 68°
2026-05-04 03:38 57.96563 -63.39663 34842 ft 528 kts 68°
2026-05-04 03:39 57.99778 -63.27109 34910 ft 535 kts 69°
2026-05-04 03:39 58.02891 -63.14372 34898 ft 535 kts 68°
2026-05-04 03:40 58.06158 -63.01742 34894 ft 535 kts 68°
2026-05-04 03:40 58.09378 -62.89057 34891 ft 535 kts 69°
2026-05-04 03:41 58.12557 -62.76340 34887 ft 534 kts 69°
2026-05-04 03:41 58.15716 -62.63616 34879 ft 534 kts 69°
2026-05-04 03:42 58.18833 -62.50985 34882 ft 534 kts 69°
2026-05-04 03:42 58.21994 -62.38102 34826 ft 535 kts 69°
2026-05-04 03:43 58.25131 -62.25241 34863 ft 538 kts 69°
2026-05-04 03:43 58.28267 -62.12311 34869 ft 540 kts 69°
2026-05-04 03:44 58.31404 -61.99303 34885 ft 542 kts 69°
2026-05-04 03:44 58.34531 -61.86260 34894 ft 542 kts 69°
2026-05-04 03:45 58.37648 -61.73174 34899 ft 542 kts 69°
2026-05-04 03:45 58.40750 -61.60078 34894 ft 542 kts 69°
2026-05-04 03:46 58.43813 -61.47062 34853 ft 541 kts 69°
2026-05-04 03:46 58.46886 -61.33924 34860 ft 542 kts 70°
2026-05-04 03:47 58.49952 -61.20733 34873 ft 544 kts 70°
2026-05-04 03:47 58.53013 -61.07487 34888 ft 545 kts 70°
2026-05-04 03:48 58.56064 -60.94200 34895 ft 545 kts 70°
2026-05-04 03:48 58.59093 -60.80928 34916 ft 545 kts 70°
2026-05-04 03:49 58.62120 -60.67581 34896 ft 544 kts 70°
2026-05-04 03:49 58.65038 -60.54222 34907 ft 540 kts 74°
2026-05-04 03:50 58.67032 -60.40400 34875 ft 537 kts 80°
2026-05-04 03:50 58.68897 -60.26488 34885 ft 538 kts 79°
2026-05-04 03:51 58.70755 -60.12526 34894 ft 539 kts 80°
2026-05-04 03:51 58.72585 -59.98522 34905 ft 540 kts 79°
2026-05-04 03:52 58.74399 -59.84497 34915 ft 540 kts 79°
2026-05-04 03:52 58.76200 -59.70436 34918 ft 541 kts 80°
2026-05-04 03:53 58.77985 -59.56362 34895 ft 541 kts 80°
2026-05-04 03:53 58.79758 -59.42253 34904 ft 542 kts 80°
2026-05-04 03:54 58.81520 -59.28092 34911 ft 543 kts 80°
2026-05-04 03:54 58.83266 -59.13907 34931 ft 543 kts 79°
2026-05-04 03:55 58.84988 -58.99801 34929 ft 543 kts 80°
2026-05-04 03:55 58.86703 -58.85602 34928 ft 542 kts 80°
2026-05-04 03:56 58.88401 -58.71402 34884 ft 542 kts 80°
2026-05-04 03:56 58.90083 -58.57183 34905 ft 543 kts 80°
2026-05-04 03:57 58.91755 -58.42909 34921 ft 544 kts 80°
2026-05-04 03:57 58.93412 -58.28602 34935 ft 545 kts 80°
2026-05-04 03:58 58.95873 -58.07099 34941 ft 546 kts 80°
2026-05-04 03:58 58.97785 -57.92862 34931 ft 547 kts 74°
2026-05-04 03:59 59.00094 -57.78811 34916 ft 547 kts 74°
2026-05-04 03:59 59.02398 -57.64735 34931 ft 548 kts 74°
2026-05-04 04:00 59.04681 -57.50621 34946 ft 548 kts 74°
2026-05-04 04:00 59.06939 -57.36485 34948 ft 548 kts 74°
2026-05-04 04:01 59.09176 -57.22331 34946 ft 547 kts 74°
2026-05-04 04:01 59.11393 -57.08181 34944 ft 547 kts 74°
2026-05-04 04:02 59.13597 -56.94001 34942 ft 547 kts 75°
2026-05-04 04:02 59.15782 -56.79818 34939 ft 546 kts 74°
2026-05-04 04:03 59.17947 -56.65652 34945 ft 545 kts 74°
2026-05-04 04:03 59.20095 -56.51480 34942 ft 545 kts 75°
2026-05-04 04:04 59.22211 -56.37400 34951 ft 544 kts 75°
2026-05-04 04:04 59.24326 -56.23211 34953 ft 544 kts 75°
2026-05-04 04:05 59.26426 -56.08992 34952 ft 544 kts 75°
2026-05-04 04:05 59.28505 -55.94805 34993 ft 542 kts 75°
2026-05-04 04:06 59.30562 -55.80634 34952 ft 541 kts 75°
2026-05-04 04:06 59.32594 -55.66512 34954 ft 540 kts 75°
2026-05-04 04:07 59.34618 -55.52329 34946 ft 539 kts 75°
2026-05-04 04:07 59.36622 -55.38163 34952 ft 539 kts 75°
2026-05-04 04:08 59.38608 -55.24002 34972 ft 537 kts 76°
2026-05-04 04:08 59.40572 -55.09867 34967 ft 536 kts 76°
2026-05-04 04:09 59.42505 -54.95826 34965 ft 536 kts 76°
2026-05-04 04:09 59.44432 -54.81705 34958 ft 535 kts 76°
2026-05-04 04:10 59.46344 -54.67568 34954 ft 535 kts 76°
2026-05-04 04:10 59.48237 -54.53439 34957 ft 534 kts 76°
2026-05-04 04:11 59.50113 -54.39329 34993 ft 532 kts 77°
2026-05-04 04:11 59.51964 -54.25254 34983 ft 530 kts 77°
2026-05-04 04:12 59.53795 -54.11199 34976 ft 529 kts 77°
2026-05-04 04:12 59.55608 -53.97159 34970 ft 528 kts 77°
2026-05-04 04:13 59.57404 -53.83117 34963 ft 528 kts 78°
2026-05-04 04:13 59.59183 -53.69075 34944 ft 527 kts 77°
2026-05-04 04:14 59.60947 -53.55021 34942 ft 527 kts 77°
2026-05-04 04:14 59.62697 -53.40945 34952 ft 528 kts 78°
2026-05-04 04:15 59.64432 -53.26858 34950 ft 528 kts 78°
2026-05-04 04:15 59.66154 -53.12734 34959 ft 529 kts 78°
2026-05-04 04:16 59.67863 -52.98574 34972 ft 530 kts 78°
2026-05-04 04:16 59.69557 -52.84411 35012 ft 528 kts 79°
2026-05-04 04:17 59.71230 -52.70266 34990 ft 527 kts 78°
2026-05-04 04:17 59.72608 -52.58509 34993 ft 527 kts 78°
2026-05-04 04:18 59.74251 -52.44360 34991 ft 527 kts 79°
2026-05-04 04:18 59.75879 -52.30195 34996 ft 527 kts 79°
2026-05-04 04:19 59.77491 -52.16026 34998 ft 527 kts 79°
2026-05-04 04:19 59.79086 -52.01881 35048 ft 524 kts 79°
2026-05-04 04:20 59.80658 -51.87765 35038 ft 523 kts 80°
2026-05-04 04:20 59.82211 -51.73669 35016 ft 521 kts 80°
2026-05-04 04:21 59.83745 -51.59598 35028 ft 520 kts 80°
2026-05-04 04:21 59.85262 -51.45536 35025 ft 520 kts 80°
2026-05-04 04:22 59.86763 -51.31482 35041 ft 518 kts 81°
2026-05-04 04:22 59.88234 -51.17556 35046 ft 517 kts 81°
2026-05-04 04:23 59.89695 -51.03555 35038 ft 516 kts 81°
2026-05-04 04:23 59.91140 -50.89565 35036 ft 515 kts 81°
2026-05-04 04:24 59.92563 -50.75630 35030 ft 514 kts 81°
2026-05-04 04:24 59.93977 -50.61618 35034 ft 514 kts 81°
2026-05-04 04:25 59.95372 -50.47659 35069 ft 512 kts 82°
2026-05-04 04:25 59.96746 -50.33744 35073 ft 511 kts 82°
2026-05-04 04:26 59.98110 -50.19846 35067 ft 510 kts 82°
2026-05-04 04:26 59.99452 -50.05971 35062 ft 509 kts 83°
2026-05-04 04:27 60.00319 -49.91987 35068 ft 505 kts 90°
2026-05-04 04:27 60.00759 -49.78091 35062 ft 505 kts 89°
2026-05-04 04:28 60.01281 -49.64131 35095 ft 503 kts 89°
2026-05-04 04:28 60.01786 -49.50196 35101 ft 502 kts 90°
2026-05-04 04:29 60.02265 -49.36290 35099 ft 501 kts 90°
2026-05-04 04:29 60.02718 -49.22412 35103 ft 500 kts 90°
2026-05-04 04:30 60.03155 -49.08533 35100 ft 500 kts 90°
2026-05-04 04:30 60.03576 -48.94671 35097 ft 499 kts 90°
2026-05-04 04:31 60.03982 -48.80814 35108 ft 499 kts 90°
2026-05-04 04:31 60.04372 -48.66971 35102 ft 498 kts 90°
2026-05-04 04:32 60.04749 -48.53133 35112 ft 498 kts 90°
2026-05-04 04:32 60.05111 -48.39302 35113 ft 498 kts 90°
2026-05-04 04:33 60.05459 -48.25456 35118 ft 498 kts 90°
2026-05-04 04:33 60.05793 -48.11598 35134 ft 499 kts 90°
2026-05-04 04:34 60.06112 -47.97730 35138 ft 499 kts 90°
2026-05-04 04:34 60.06417 -47.83847 35143 ft 499 kts 90°
2026-05-04 04:35 60.06705 -47.69947 35152 ft 500 kts 89°
2026-05-04 04:35 60.06983 -47.56019 35161 ft 501 kts 90°
2026-05-04 04:36 60.07246 -47.42078 35169 ft 501 kts 90°
2026-05-04 04:36 60.07493 -47.28131 35171 ft 501 kts 90°
2026-05-04 04:37 60.07945 -47.00213 35180 ft 501 kts 90°
2026-05-04 04:38 60.08148 -46.86266 35154 ft 501 kts 90°
2026-05-04 04:38 60.08336 -46.72309 35158 ft 502 kts 90°
2026-05-04 04:39 60.08511 -46.58327 35172 ft 502 kts 90°
2026-05-04 04:39 60.08671 -46.44328 35178 ft 503 kts 90°
2026-05-04 04:40 60.08816 -46.30400 35187 ft 504 kts 90°
2026-05-04 04:40 60.08946 -46.16368 35190 ft 504 kts 90°
2026-05-04 04:41 60.09062 -46.02342 35190 ft 504 kts 91°
2026-05-04 04:41 60.09163 -45.88300 35172 ft 504 kts 91°
2026-05-04 04:42 60.09249 -45.74264 35180 ft 504 kts 91°
2026-05-04 04:42 60.09320 -45.60205 35184 ft 505 kts 91°
2026-05-04 04:43 60.09377 -45.46143 35188 ft 505 kts 91°
2026-05-04 04:43 60.09418 -45.32066 35192 ft 505 kts 91°
2026-05-04 04:44 60.09445 -45.17983 35190 ft 505 kts 91°
2026-05-04 04:44 60.09457 -45.03903 35191 ft 505 kts 91°
2026-05-04 04:45 60.09453 -44.89815 35192 ft 505 kts 92°
2026-05-04 04:47 60.09324 -44.40677 35180 ft 505 kts 92°
2026-05-04 04:47 60.09254 -44.26607 35178 ft 505 kts 92°
2026-05-04 04:48 60.09168 -44.12554 35173 ft 505 kts 92°
2026-05-04 04:49 60.08891 -43.77490 35168 ft 505 kts 92°
2026-05-04 04:49 60.08753 -43.63426 35155 ft 505 kts 93°
2026-05-04 04:50 60.08602 -43.49350 35152 ft 505 kts 93°
2026-05-04 04:50 60.08434 -43.35289 35151 ft 505 kts 93°
2026-05-04 04:51 60.08251 -43.21229 35165 ft 505 kts 93°
2026-05-04 04:51 60.08053 -43.07159 35160 ft 505 kts 93°
2026-05-04 04:52 60.07841 -42.93092 35165 ft 505 kts 93°
2026-05-04 04:52 60.07614 -42.79039 35168 ft 505 kts 93°
2026-05-04 04:53 60.07373 -42.64983 35166 ft 505 kts 93°
2026-05-04 04:53 60.07115 -42.50918 35168 ft 505 kts 94°
2026-05-04 04:54 60.06844 -42.36864 35168 ft 505 kts 94°
2026-05-04 04:54 60.06557 -42.22804 35168 ft 505 kts 94°
2026-05-04 04:55 60.06254 -42.08757 35174 ft 505 kts 93°
2026-05-04 04:55 60.05938 -41.94721 35162 ft 505 kts 94°
2026-05-04 04:56 60.05607 -41.80674 35161 ft 505 kts 94°
2026-05-04 04:56 60.05261 -41.66627 35163 ft 505 kts 94°
2026-05-04 04:57 60.04899 -41.52589 35164 ft 506 kts 94°
2026-05-04 04:57 60.04523 -41.38526 35164 ft 506 kts 94°
2026-05-04 04:58 60.04134 -41.24566 35165 ft 506 kts 94°
2026-05-04 04:58 60.03726 -41.10499 35171 ft 507 kts 94°
2026-05-04 04:59 60.03304 -40.96410 35170 ft 508 kts 94°
2026-05-04 04:59 60.02866 -40.82300 35170 ft 509 kts 94°
2026-05-04 05:00 60.02412 -40.68186 35176 ft 509 kts 94°
2026-05-04 05:01 60.01703 -40.47018 35175 ft 509 kts 94°
2026-05-04 05:01 60.01217 -40.32910 35171 ft 508 kts 95°
2026-05-04 05:02 60.00723 -40.18803 35165 ft 509 kts 94°
2026-05-04 05:02 60.00216 -40.04682 35167 ft 510 kts 95°
2026-05-04 05:03 60.00014 -39.90530 35187 ft 510 kts 86°
2026-05-04 05:04 60.01337 -39.62373 35180 ft 511 kts 85°
2026-05-04 05:04 60.01859 -39.48194 35181 ft 511 kts 86°
2026-05-04 05:06 60.03667 -38.91565 35179 ft 509 kts 86°
2026-05-04 05:07 60.04077 -38.77464 35168 ft 509 kts 86°
2026-05-04 05:07 60.04474 -38.63281 35191 ft 509 kts 87°
2026-05-04 05:09 60.06011 -38.02157 35179 ft 507 kts 87°
2026-05-04 05:10 60.06325 -37.88086 35173 ft 507 kts 87°
2026-05-04 05:10 60.06625 -37.73962 35188 ft 506 kts 88°
2026-05-04 05:11 60.06907 -37.59983 35196 ft 506 kts 88°
2026-05-04 05:11 60.07177 -37.45818 35181 ft 505 kts 88°
2026-05-04 05:12 60.07431 -37.31753 35192 ft 505 kts 88°
2026-05-04 05:12 60.07669 -37.17698 35177 ft 505 kts 88°
2026-05-04 05:13 60.07893 -37.03653 35184 ft 505 kts 88°
2026-05-04 05:13 60.08101 -36.89606 35189 ft 504 kts 88°
2026-05-04 05:14 60.08294 -36.75582 35192 ft 504 kts 88°
2026-05-04 05:14 60.08473 -36.61558 35201 ft 503 kts 89°
2026-05-04 05:15 60.08635 -36.47628 35191 ft 503 kts 89°
2026-05-04 05:15 60.08783 -36.33738 35199 ft 503 kts 89°
2026-05-04 05:16 60.08918 -36.19592 35181 ft 503 kts 89°
2026-05-04 05:16 60.09037 -36.05581 35187 ft 503 kts 89°
2026-05-04 05:17 60.09141 -35.91563 35194 ft 503 kts 89°
2026-05-04 05:17 60.09230 -35.77544 35201 ft 503 kts 89°
2026-05-04 05:18 60.09305 -35.63517 35199 ft 503 kts 89°
2026-05-04 05:18 60.09364 -35.49599 35187 ft 504 kts 89°
2026-05-04 05:19 60.09410 -35.35446 35202 ft 504 kts 89°
2026-05-04 05:19 60.09440 -35.21392 35197 ft 504 kts 90°
2026-05-04 05:20 60.09455 -35.07333 35203 ft 505 kts 90°
2026-05-04 05:20 60.09455 -34.93363 35203 ft 505 kts 90°
2026-05-04 05:21 60.09441 -34.79296 35196 ft 505 kts 90°
2026-05-04 05:21 60.09411 -34.65233 35208 ft 505 kts 90°
2026-05-04 05:22 60.09366 -34.51145 35186 ft 506 kts 90°
2026-05-04 05:22 60.09307 -34.37027 35193 ft 507 kts 90°
2026-05-04 05:23 60.09233 -34.22946 35200 ft 508 kts 90°
2026-05-04 05:23 60.09143 -34.08792 35201 ft 508 kts 90°
2026-05-04 05:24 60.09038 -33.94634 35199 ft 508 kts 90°
2026-05-04 05:24 60.08919 -33.80548 35204 ft 508 kts 91°
2026-05-04 05:25 60.08782 -33.66290 35196 ft 510 kts 90°
2026-05-04 05:25 60.08631 -33.52098 35200 ft 510 kts 91°
2026-05-04 05:26 60.08466 -33.37882 35209 ft 510 kts 91°
2026-05-04 05:26 60.08285 -33.23740 35204 ft 510 kts 91°
2026-05-04 05:28 60.07408 -32.66974 35189 ft 512 kts 91°
2026-05-04 05:29 60.07150 -32.52744 35196 ft 512 kts 91°
2026-05-04 05:29 60.06876 -32.38480 35196 ft 512 kts 91°
2026-05-04 05:31 60.05627 -31.81497 35191 ft 514 kts 92°
2026-05-04 05:32 60.05276 -31.67209 35193 ft 514 kts 92°
2026-05-04 05:33 60.04722 -31.45881 35193 ft 514 kts 92°
2026-05-04 05:33 60.04333 -31.31651 35179 ft 515 kts 92°
2026-05-04 05:34 60.03926 -31.17311 35180 ft 516 kts 92°
2026-05-04 05:34 60.03504 -31.03002 35191 ft 515 kts 93°
2026-05-04 05:35 60.03073 -30.88901 35190 ft 515 kts 93°
2026-05-04 05:35 60.02620 -30.74592 35192 ft 515 kts 93°
2026-05-04 05:36 60.02164 -30.60662 35192 ft 515 kts 93°
2026-05-04 05:36 60.01684 -30.46450 35171 ft 516 kts 93°
2026-05-04 05:37 60.01190 -30.32125 35177 ft 517 kts 93°
2026-05-04 05:37 60.00688 -30.17792 35179 ft 517 kts 94°
2026-05-04 05:38 59.99301 -29.96441 35197 ft 517 kts 102°
2026-05-04 05:38 59.97321 -29.82665 35182 ft 516 kts 108°
2026-05-04 05:39 59.94157 -29.62159 35165 ft 517 kts 107°
2026-05-04 05:40 59.90981 -29.41613 35170 ft 518 kts 108°
2026-05-04 05:40 59.88829 -29.27907 35173 ft 518 kts 108°
2026-05-04 05:41 59.86659 -29.14236 35183 ft 517 kts 108°
2026-05-04 05:41 59.84524 -29.00906 35180 ft 517 kts 108°
2026-05-04 05:42 59.82328 -28.87292 35177 ft 517 kts 108°
2026-05-04 05:42 59.80119 -28.73706 35182 ft 517 kts 108°
2026-05-04 05:43 59.77908 -28.60208 35157 ft 518 kts 108°
2026-05-04 05:45 59.68877 -28.06112 35172 ft 517 kts 109°
2026-05-04 05:47 59.59635 -27.52369 35184 ft 516 kts 109°
2026-05-04 05:47 59.57295 -27.39003 35185 ft 515 kts 110°
2026-05-04 05:48 59.54942 -27.25665 35181 ft 515 kts 110°
2026-05-04 05:48 59.52579 -27.12365 35174 ft 514 kts 110°
2026-05-04 05:49 59.50204 -26.99089 35179 ft 514 kts 110°
2026-05-04 05:49 59.47816 -26.85837 35138 ft 515 kts 110°
2026-05-04 05:51 59.38125 -26.32982 35159 ft 514 kts 110°
2026-05-04 05:52 59.35670 -26.19821 35160 ft 514 kts 111°
2026-05-04 05:52 59.33201 -26.06676 35155 ft 514 kts 111°
2026-05-04 05:54 59.23189 -25.54260 35150 ft 515 kts 111°
2026-05-04 05:55 59.20649 -25.41186 35151 ft 515 kts 111°
2026-05-04 05:55 59.18099 -25.28144 35156 ft 515 kts 111°
2026-05-04 05:56 59.15533 -25.15105 35162 ft 515 kts 111°
2026-05-04 05:56 59.12968 -25.02162 35131 ft 516 kts 111°
2026-05-04 05:57 59.10369 -24.89129 35137 ft 517 kts 112°
2026-05-04 05:57 59.07753 -24.76096 35143 ft 517 kts 112°
2026-05-04 05:58 59.05122 -24.63074 35147 ft 518 kts 112°
2026-05-04 05:58 59.02473 -24.50050 35151 ft 518 kts 112°
2026-05-04 05:59 59.00264 -24.39249 35179 ft 518 kts 112°
2026-05-04 05:59 58.97595 -24.26280 35170 ft 518 kts 112°
2026-05-04 06:00 58.94915 -24.13337 35140 ft 518 kts 112°
2026-05-04 06:00 58.92215 -24.00380 35144 ft 519 kts 112°
2026-05-04 06:01 58.89500 -23.87437 35147 ft 519 kts 112°
2026-05-04 06:03 58.78518 -23.35891 35162 ft 518 kts 113°
2026-05-04 06:05 58.65927 -22.78333 35159 ft 519 kts 114°
2026-05-04 06:06 58.63091 -22.65582 35152 ft 519 kts 114°
2026-05-04 06:06 58.60245 -22.52864 35152 ft 519 kts 114°
2026-05-04 06:07 58.57384 -22.40161 35123 ft 520 kts 114°
2026-05-04 06:07 58.54508 -22.27464 35127 ft 520 kts 114°
2026-05-04 06:08 58.51619 -22.14785 35149 ft 519 kts 115°
2026-05-04 06:08 58.48722 -22.02147 35147 ft 519 kts 115°
2026-05-04 06:09 58.45812 -21.89527 35136 ft 519 kts 115°
2026-05-04 06:11 58.34054 -21.39281 35133 ft 519 kts 115°
2026-05-04 06:13 58.22132 -20.89497 35129 ft 518 kts 116°
2026-05-04 06:14 58.11536 -20.46188 35123 ft 517 kts 116°
2026-05-04 06:15 58.08486 -20.33869 35126 ft 517 kts 116°
2026-05-04 06:15 58.05434 -20.21572 35118 ft 517 kts 116°
2026-05-04 06:16 58.02371 -20.09288 35121 ft 517 kts 116°
2026-05-04 06:16 57.99313 -19.97024 35119 ft 516 kts 114°
2026-05-04 06:17 57.97010 -19.84198 35106 ft 518 kts 108°
2026-05-04 06:17 57.94878 -19.71252 35110 ft 518 kts 108°
2026-05-04 06:18 57.92628 -19.58383 35110 ft 518 kts 109°
2026-05-04 06:20 57.83342 -19.07266 35109 ft 517 kts 110°
2026-05-04 06:21 57.77435 -18.75464 35106 ft 516 kts 110°
2026-05-04 06:22 57.75052 -18.62778 35106 ft 516 kts 110°
2026-05-04 06:25 57.58019 -17.74477 35098 ft 516 kts 111°
2026-05-04 06:26 57.55537 -17.61938 35091 ft 516 kts 111°
2026-05-04 06:26 57.53040 -17.49400 35094 ft 516 kts 111°
2026-05-04 06:27 57.46743 -17.18126 35091 ft 517 kts 112°
2026-05-04 06:28 57.44220 -17.05735 35093 ft 517 kts 112°
2026-05-04 06:28 57.41666 -16.93264 35083 ft 518 kts 112°
2026-05-04 06:29 57.39096 -16.80795 35083 ft 518 kts 112°
2026-05-04 06:29 57.36513 -16.68336 35070 ft 518 kts 112°
2026-05-04 06:30 57.33919 -16.55905 35096 ft 517 kts 112°
2026-05-04 06:30 57.31313 -16.43493 35094 ft 517 kts 113°
2026-05-04 06:31 57.28694 -16.31096 35091 ft 517 kts 113°
2026-05-04 06:31 57.26065 -16.18722 35085 ft 518 kts 113°
2026-05-04 06:33 57.15404 -15.69307 35088 ft 518 kts 113°
2026-05-04 06:34 57.12711 -15.57010 35090 ft 518 kts 114°
2026-05-04 06:34 57.10003 -15.44719 35083 ft 518 kts 114°
2026-05-04 06:36 56.99824 -14.95261 35099 ft 519 kts 98°
2026-05-04 06:37 56.99164 -14.82102 35098 ft 518 kts 94°
2026-05-04 06:37 56.98549 -14.68932 35093 ft 518 kts 95°
2026-05-04 06:38 56.97907 -14.55765 35090 ft 518 kts 95°
2026-05-04 06:40 56.94925 -14.03267 35088 ft 518 kts 103°
2026-05-04 06:40 56.92660 -13.90860 35083 ft 518 kts 115°
2026-05-04 06:41 56.89552 -13.78988 35085 ft 517 kts 116°
2026-05-04 06:41 56.86471 -13.67132 35094 ft 516 kts 115°
2026-05-04 06:42 56.83378 -13.55311 35108 ft 515 kts 115°
2026-05-04 06:44 56.70957 -13.08559 35085 ft 514 kts 116°
2026-05-04 06:44 56.67818 -12.96899 35097 ft 513 kts 116°
2026-05-04 06:45 56.64676 -12.85284 35097 ft 513 kts 115°
2026-05-04 06:45 56.61519 -12.73673 35089 ft 512 kts 116°
2026-05-04 06:46 56.58356 -12.62101 35086 ft 512 kts 116°
2026-05-04 06:46 56.55186 -12.50559 35080 ft 511 kts 116°
2026-05-04 06:48 56.42971 -12.06628 35088 ft 509 kts 116°
2026-05-04 06:50 56.30103 -11.61235 35080 ft 508 kts 116°
2026-05-04 06:51 56.26879 -11.50006 35100 ft 507 kts 116°
2026-05-04 06:51 56.23636 -11.38758 35090 ft 506 kts 116°
2026-05-04 06:52 56.20387 -11.27541 35089 ft 506 kts 116°
2026-05-04 06:52 56.17141 -11.16392 35083 ft 506 kts 116°
2026-05-04 06:53 56.13885 -11.05262 35087 ft 505 kts 116°
2026-05-04 06:53 56.10610 -10.94122 35082 ft 505 kts 116°
2026-05-04 06:54 56.07327 -10.83011 35107 ft 504 kts 116°
2026-05-04 06:54 56.04053 -10.71974 35100 ft 503 kts 116°
2026-05-04 06:55 56.00775 -10.60977 35095 ft 503 kts 116°
2026-05-04 06:55 55.97478 -10.49969 35091 ft 502 kts 116°
2026-05-04 06:57 55.84265 -10.06360 34473 ft 497 kts 116°
2026-05-04 06:58 55.82616 -10.00957 34354 ft 497 kts 116°
2026-05-04 06:58 55.80998 -9.95580 34234 ft 497 kts 115°
2026-05-04 06:58 55.79415 -9.90058 34106 ft 497 kts 114°
2026-05-04 06:58 55.77867 -9.84572 33980 ft 497 kts 114°
2026-05-04 06:59 55.76317 -9.79085 33844 ft 497 kts 115°
2026-05-04 06:59 55.74756 -9.73597 33702 ft 498 kts 115°
2026-05-04 06:59 55.73187 -9.68119 33564 ft 499 kts 115°
2026-05-04 06:59 55.71609 -9.62636 33427 ft 499 kts 115°
2026-05-04 07:01 55.60589 -9.24789 32524 ft 502 kts 115°
2026-05-04 07:01 55.58905 -9.19058 32382 ft 503 kts 115°
2026-05-04 07:02 55.57282 -9.13550 32251 ft 503 kts 115°
2026-05-04 07:02 55.55662 -9.08065 32121 ft 503 kts 115°
2026-05-04 07:02 55.54040 -9.02588 31996 ft 502 kts 115°
2026-05-04 07:02 55.52422 -8.97136 31862 ft 502 kts 115°
2026-05-04 07:03 55.50800 -8.91682 31743 ft 501 kts 115°
2026-05-04 07:03 55.49176 -8.86235 31609 ft 502 kts 115°
2026-05-04 07:03 55.47551 -8.80794 31494 ft 501 kts 115°
2026-05-04 07:03 55.45929 -8.75378 31361 ft 498 kts 114°
2026-05-04 07:04 55.44312 -8.69992 31231 ft 496 kts 115°
2026-05-04 07:04 55.42698 -8.64629 31116 ft 496 kts 115°
2026-05-04 07:04 55.41084 -8.59272 30973 ft 495 kts 115°
2026-05-04 07:04 55.39469 -8.53927 30863 ft 494 kts 115°
2026-05-04 07:05 55.37852 -8.48589 30753 ft 494 kts 115°
2026-05-04 07:05 55.36237 -8.43268 30608 ft 493 kts 115°
2026-05-04 07:05 55.34685 -8.38164 30501 ft 493 kts 115°
2026-05-04 07:05 55.33019 -8.32700 30373 ft 492 kts 115°
2026-05-04 07:06 55.29779 -8.22112 30134 ft 492 kts 114°
2026-05-04 07:06 55.28161 -8.16838 29995 ft 491 kts 115°
2026-05-04 07:06 55.26541 -8.11572 29851 ft 490 kts 115°
2026-05-04 07:07 55.24925 -8.06331 29714 ft 487 kts 114°
2026-05-04 07:08 55.13695 -7.70220 28716 ft 479 kts 115°
2026-05-04 07:09 55.12097 -7.65125 28616 ft 478 kts 115°
2026-05-04 07:09 55.10498 -7.60039 28473 ft 477 kts 115°
2026-05-04 07:09 55.08910 -7.54997 28333 ft 476 kts 115°
2026-05-04 07:09 55.07346 -7.50044 28220 ft 475 kts 115°
2026-05-04 07:10 55.05750 -7.44997 28079 ft 474 kts 115°
2026-05-04 07:10 55.04157 -7.39971 27949 ft 473 kts 115°
2026-05-04 07:12 54.93097 -7.05370 27040 ft 464 kts 115°
2026-05-04 07:12 54.91530 -7.00505 26903 ft 463 kts 115°
2026-05-04 07:12 54.89956 -6.95630 26784 ft 462 kts 116°
2026-05-04 07:12 54.88444 -6.90959 26656 ft 461 kts 116°
2026-05-04 07:13 54.86808 -6.85914 26521 ft 461 kts 116°
2026-05-04 07:13 54.85258 -6.81142 26405 ft 460 kts 116°
2026-05-04 07:13 54.83686 -6.76315 26265 ft 459 kts 116°
2026-05-04 07:14 54.77432 -6.57196 25776 ft 454 kts 116°
2026-05-04 07:14 54.75872 -6.52451 25642 ft 453 kts 116°
2026-05-04 07:15 54.74315 -6.47721 25525 ft 453 kts 116°
2026-05-04 07:15 54.72754 -6.42990 25395 ft 452 kts 116°
2026-05-04 07:15 54.71197 -6.38281 25286 ft 451 kts 116°
2026-05-04 07:15 54.69637 -6.33568 25156 ft 451 kts 117°
2026-05-04 07:16 54.68082 -6.28876 25068 ft 450 kts 117°
2026-05-04 07:16 54.66538 -6.24246 25072 ft 450 kts 118°
2026-05-04 07:16 54.64802 -6.19650 25076 ft 452 kts 122°
2026-05-04 07:16 54.63013 -6.15189 25073 ft 452 kts 121°
2026-05-04 07:17 54.61249 -6.10705 25076 ft 452 kts 121°
2026-05-04 07:17 54.59487 -6.06220 25076 ft 450 kts 121°
2026-05-04 07:17 54.57733 -6.01772 25072 ft 448 kts 121°
2026-05-04 07:17 54.56278 -5.98097 25073 ft 448 kts 121°
2026-05-04 07:18 54.54480 -5.93567 25074 ft 448 kts 121°
2026-05-04 07:18 54.52721 -5.89147 25073 ft 448 kts 121°
2026-05-04 07:18 54.50958 -5.84727 25076 ft 448 kts 121°
2026-05-04 07:18 54.49202 -5.80336 25074 ft 448 kts 121°
2026-05-04 07:19 54.47435 -5.75926 25072 ft 448 kts 121°
2026-05-04 07:19 54.45666 -5.71518 25071 ft 448 kts 121°
2026-05-04 07:19 54.43896 -5.67116 25069 ft 448 kts 122°
2026-05-04 07:19 54.42126 -5.62721 25070 ft 448 kts 122°
2026-05-04 07:20 54.40355 -5.58331 25064 ft 448 kts 122°
2026-05-04 07:20 54.38579 -5.53935 25065 ft 448 kts 122°
2026-05-04 07:20 54.36799 -5.49540 25070 ft 447 kts 122°
2026-05-04 07:20 54.35029 -5.45176 25062 ft 445 kts 122°
2026-05-04 07:22 54.22652 -5.14858 25062 ft 445 kts 122°
2026-05-04 07:22 54.20876 -5.10538 25061 ft 445 kts 122°
2026-05-04 07:23 54.19095 -5.06213 25056 ft 445 kts 122°
2026-05-04 07:23 54.17319 -5.01908 25057 ft 445 kts 122°
2026-05-04 07:23 54.15534 -4.97589 25056 ft 445 kts 122°
2026-05-04 07:23 54.13750 -4.93279 25059 ft 443 kts 122°
2026-05-04 07:24 54.11973 -4.88997 25057 ft 442 kts 122°
2026-05-04 07:24 54.10209 -4.84750 25054 ft 442 kts 122°
2026-05-04 07:24 54.08416 -4.80439 25054 ft 442 kts 122°
2026-05-04 07:24 54.06634 -4.76163 25053 ft 442 kts 122°
2026-05-04 07:25 54.04874 -4.71874 25055 ft 442 kts 121°
2026-05-04 07:26 53.92715 -4.41709 25049 ft 442 kts 122°
2026-05-04 07:27 53.90969 -4.37423 25055 ft 440 kts 121°
2026-05-04 07:27 53.89231 -4.33164 25046 ft 438 kts 121°
2026-05-04 07:27 53.87509 -4.28957 24985 ft 427 kts 121°
2026-05-04 07:27 53.85846 -4.24906 24792 ft 412 kts 121°
2026-05-04 07:28 53.84220 -4.20947 24478 ft 406 kts 122°
2026-05-04 07:28 53.82615 -4.17031 24139 ft 405 kts 122°
2026-05-04 07:28 53.81007 -4.13111 23791 ft 405 kts 122°
2026-05-04 07:28 53.79403 -4.09207 23410 ft 403 kts 122°
2026-05-04 07:29 53.77808 -4.05334 22986 ft 400 kts 122°
2026-05-04 07:29 53.76220 -4.01488 22581 ft 398 kts 123°
2026-05-04 07:29 53.74640 -3.97667 22184 ft 396 kts 123°
2026-05-04 07:29 53.73065 -3.93862 21774 ft 394 kts 123°
2026-05-04 07:30 53.71502 -3.90091 21464 ft 392 kts 123°
2026-05-04 07:30 53.69936 -3.86320 21194 ft 391 kts 123°
2026-05-04 07:30 53.68376 -3.82567 20953 ft 390 kts 123°
2026-05-04 07:30 53.66843 -3.78887 20709 ft 387 kts 123°
2026-05-04 07:31 53.65299 -3.75185 20449 ft 385 kts 123°
2026-05-04 07:31 53.63759 -3.71498 20193 ft 385 kts 123°
2026-05-04 07:33 53.53136 -3.46221 18501 ft 376 kts 124°
2026-05-04 07:33 53.51622 -3.42637 18254 ft 376 kts 124°
2026-05-04 07:33 53.50111 -3.39068 17978 ft 374 kts 124°
2026-05-04 07:33 53.48608 -3.35524 17709 ft 373 kts 124°
2026-05-04 07:34 53.47105 -3.31982 17441 ft 371 kts 124°
2026-05-04 07:34 53.45618 -3.28485 17177 ft 370 kts 124°
2026-05-04 07:34 53.44124 -3.24974 16914 ft 369 kts 125°
2026-05-04 07:34 53.42635 -3.21480 16656 ft 368 kts 125°
2026-05-04 07:35 53.41171 -3.18048 16408 ft 366 kts 125°
2026-05-04 07:35 53.39695 -3.14595 16141 ft 365 kts 124°
2026-05-04 07:35 53.38205 -3.11134 15896 ft 364 kts 125°
2026-05-04 07:35 53.36702 -3.07737 15656 ft 363 kts 126°
2026-05-04 07:36 53.35199 -3.04378 15404 ft 364 kts 126°
2026-05-04 07:36 53.33678 -3.00983 15148 ft 364 kts 126°
2026-05-04 07:38 53.23689 -2.78668 14040 ft 359 kts 126°
2026-05-04 07:38 53.22189 -2.75331 14036 ft 359 kts 126°
2026-05-04 07:38 53.20675 -2.71967 14036 ft 357 kts 127°
2026-05-04 07:38 53.19187 -2.68670 14037 ft 358 kts 127°
2026-05-04 07:39 53.17700 -2.65379 14037 ft 357 kts 127°
2026-05-04 07:39 53.16182 -2.62026 14038 ft 358 kts 127°
2026-05-04 07:39 53.14679 -2.58718 14039 ft 359 kts 127°
2026-05-04 07:39 53.13194 -2.55451 14038 ft 358 kts 126°
2026-05-04 07:40 53.11742 -2.52001 14037 ft 360 kts 124°
2026-05-04 07:40 53.10354 -2.48538 14038 ft 359 kts 124°
2026-05-04 07:40 53.08993 -2.45134 14038 ft 359 kts 124°
2026-05-04 07:40 53.07603 -2.41687 14037 ft 358 kts 124°
2026-05-04 07:41 53.06206 -2.38257 14040 ft 358 kts 124°
2026-05-04 07:41 53.04801 -2.34829 14037 ft 359 kts 125°
2026-05-04 07:41 53.03279 -2.31561 14036 ft 358 kts 134°
2026-05-04 07:41 53.01433 -2.28786 14036 ft 358 kts 144°
2026-05-04 07:42 52.99349 -2.26533 14037 ft 357 kts 149°
2026-05-04 07:42 52.97242 -2.24357 13972 ft 357 kts 149°
2026-05-04 07:42 52.95143 -2.22163 13727 ft 356 kts 149°
2026-05-04 07:42 52.93064 -2.19983 13315 ft 353 kts 149°
2026-05-04 07:43 52.90998 -2.17818 12731 ft 350 kts 149°
2026-05-04 07:43 52.88945 -2.15670 12102 ft 348 kts 149°
2026-05-04 07:43 52.86901 -2.13535 11499 ft 346 kts 149°
2026-05-04 07:43 52.84875 -2.11422 10895 ft 343 kts 149°
2026-05-04 07:44 52.82863 -2.09325 10440 ft 338 kts 149°
2026-05-04 07:44 52.80919 -2.07299 10291 ft 323 kts 149°
2026-05-04 07:44 52.79056 -2.05360 10161 ft 309 kts 148°
2026-05-04 07:44 52.77278 -2.03511 10037 ft 296 kts 148°
2026-05-04 07:45 52.75553 -2.01718 9687 ft 292 kts 149°
2026-05-04 07:45 52.73844 -1.99945 9318 ft 287 kts 149°
2026-05-04 07:45 52.72179 -1.98221 8905 ft 286 kts 149°
2026-05-04 07:45 52.70482 -1.96464 8475 ft 285 kts 149°
2026-05-04 07:46 52.68825 -1.94751 8024 ft 285 kts 150°
2026-05-04 07:46 52.67137 -1.93007 7631 ft 283 kts 150°
2026-05-04 07:46 52.65470 -1.91286 7245 ft 282 kts 150°
2026-05-04 07:46 52.63812 -1.89577 7068 ft 281 kts 150°
2026-05-04 07:47 52.62158 -1.87872 7027 ft 281 kts 150°
2026-05-04 07:47 52.60526 -1.86192 7051 ft 281 kts 150°
2026-05-04 07:47 52.58866 -1.84484 7051 ft 281 kts 150°
2026-05-04 07:49 52.47638 -1.72978 7052 ft 282 kts 149°
2026-05-04 07:49 52.45979 -1.71284 7054 ft 280 kts 149°
2026-05-04 07:49 52.44328 -1.69601 7051 ft 281 kts 149°
2026-05-04 07:50 52.42667 -1.67909 7053 ft 281 kts 149°
2026-05-04 07:50 52.41006 -1.66218 7057 ft 281 kts 149°
2026-05-04 07:50 52.39351 -1.64534 7057 ft 279 kts 149°
2026-05-04 07:50 52.37707 -1.62863 7054 ft 279 kts 149°
2026-05-04 07:51 52.36057 -1.61186 7052 ft 279 kts 149°
2026-05-04 07:51 52.34398 -1.59503 7046 ft 281 kts 149°
2026-05-04 07:51 52.32753 -1.57835 7051 ft 279 kts 149°
2026-05-04 07:51 52.31110 -1.56171 7029 ft 279 kts 149°
2026-05-04 07:52 52.29461 -1.54501 7028 ft 279 kts 149°
2026-05-04 07:52 52.27809 -1.52831 7028 ft 279 kts 149°
2026-05-04 07:52 52.26165 -1.51174 7027 ft 276 kts 148°
2026-05-04 07:52 52.24536 -1.49530 7022 ft 275 kts 148°
2026-05-04 07:53 52.22907 -1.47885 7028 ft 276 kts 148°
2026-05-04 07:54 52.13681 -1.32363 6941 ft 268 kts 130°
2026-05-04 07:55 52.12482 -1.30121 6860 ft 257 kts 131°
2026-05-04 07:55 52.11314 -1.28000 6773 ft 247 kts 132°
2026-05-04 07:55 52.10176 -1.25958 6594 ft 242 kts 132°
2026-05-04 07:55 52.09056 -1.23955 6496 ft 241 kts 132°
2026-05-04 07:56 52.07925 -1.21933 6407 ft 242 kts 132°
2026-05-04 07:56 52.06796 -1.19912 6300 ft 241 kts 132°
2026-05-04 07:56 52.05677 -1.17909 6192 ft 241 kts 132°
2026-05-04 07:56 52.04562 -1.15915 6084 ft 240 kts 132°
2026-05-04 07:57 52.03438 -1.13909 5988 ft 240 kts 131°
2026-05-04 07:57 52.02318 -1.11912 5902 ft 238 kts 131°
2026-05-04 07:57 52.01257 -1.10021 5814 ft 238 kts 132°
2026-05-04 07:57 52.00144 -1.08035 5770 ft 237 kts 132°
2026-05-04 07:58 51.99053 -1.06091 5692 ft 237 kts 131°
2026-05-04 07:58 51.97921 -1.04077 5607 ft 238 kts 132°
2026-05-04 07:58 51.96808 -1.02098 5507 ft 237 kts 132°
2026-05-04 07:58 51.95696 -1.00116 5414 ft 237 kts 130°
2026-05-04 07:59 51.94680 -0.98024 5324 ft 235 kts 126°
2026-05-04 07:59 51.93720 -0.95874 5202 ft 236 kts 126°
2026-05-04 07:59 51.92760 -0.93713 5102 ft 237 kts 125°
2026-05-04 07:59 51.91795 -0.91545 4995 ft 237 kts 125°
2026-05-04 08:00 51.90829 -0.89381 4904 ft 237 kts 126°
2026-05-04 08:00 51.89864 -0.87219 4790 ft 237 kts 125°
2026-05-04 08:00 51.88903 -0.85074 4696 ft 232 kts 126°
2026-05-04 08:02 51.82617 -0.71545 3980 ft 212 kts 130°
2026-05-04 08:02 51.81661 -0.69766 3932 ft 212 kts 130°
2026-05-04 08:02 51.80691 -0.67970 3913 ft 212 kts 130°
2026-05-04 08:03 51.79721 -0.66177 3888 ft 212 kts 130°
2026-05-04 08:03 51.78760 -0.64408 3877 ft 211 kts 130°
2026-05-04 08:03 51.77790 -0.62617 3836 ft 212 kts 130°
2026-05-04 08:03 51.76817 -0.60837 3819 ft 211 kts 130°
2026-05-04 08:04 51.75849 -0.59061 3776 ft 211 kts 130°
2026-05-04 08:04 51.74871 -0.57277 3715 ft 212 kts 130°
2026-05-04 08:04 51.73893 -0.55507 3681 ft 211 kts 130°
2026-05-04 08:04 51.72919 -0.53739 3643 ft 211 kts 130°
2026-05-04 08:05 51.71951 -0.51970 3659 ft 210 kts 130°
2026-05-04 08:05 51.70981 -0.50208 3945 ft 211 kts 130°
2026-05-04 08:05 51.70004 -0.48421 4026 ft 212 kts 130°
2026-05-04 08:05 51.69036 -0.46633 4020 ft 211 kts 132°
2026-05-04 08:06 51.67945 -0.45038 4025 ft 212 kts 141°
2026-05-04 08:06 51.66816 -0.43504 4024 ft 212 kts 136°
2026-05-04 08:06 51.65746 -0.41867 3967 ft 212 kts 136°
2026-05-04 08:06 51.64722 -0.40219 3826 ft 211 kts 133°
2026-05-04 08:08 51.57446 -0.28794 2995 ft 195 kts 136°
2026-05-04 08:08 51.56476 -0.27326 2999 ft 189 kts 136°
2026-05-04 08:10 51.47468 -0.28210 2995 ft 157 kts 257°
2026-05-04 08:11 51.47558 -0.29929 3004 ft 156 kts 283°
2026-05-04 08:11 51.47800 -0.33373 3000 ft 156 kts 272°
2026-05-04 08:11 51.47811 -0.35112 3003 ft 157 kts 271°
2026-05-04 08:12 51.47804 -0.36864 2991 ft 157 kts 271°
2026-05-04 08:12 51.47789 -0.38615 3004 ft 157 kts 270°
2026-05-04 08:12 51.47974 -0.40314 2991 ft 155 kts 300°
2026-05-04 08:12 51.48785 -0.41393 2985 ft 157 kts 345°
2026-05-04 08:13 51.49887 -0.41638 3004 ft 163 kts
2026-05-04 08:13 51.51031 -0.41651 3003 ft 165 kts
2026-05-04 08:13 51.52175 -0.41621 2984 ft 164 kts 11°
2026-05-04 08:13 51.53147 -0.40746 3001 ft 163 kts 52°
2026-05-04 08:14 51.53507 -0.39046 3013 ft 166 kts 88°
2026-05-04 08:14 51.53480 -0.37219 2996 ft 165 kts 91°
2026-05-04 08:14 51.53456 -0.35383 2993 ft 165 kts 90°
2026-05-04 08:16 51.53112 -0.22572 2995 ft 166 kts 109°
2026-05-04 08:16 51.52675 -0.20856 2996 ft 165 kts 110°
2026-05-04 08:16 51.52137 -0.19265 2990 ft 167 kts 134°
2026-05-04 08:17 51.51165 -0.18256 3004 ft 168 kts 151°
2026-05-04 08:17 51.50114 -0.17408 2994 ft 169 kts 160°
2026-05-04 08:17 51.48953 -0.17074 3004 ft 170 kts 171°
2026-05-04 08:17 51.47765 -0.16825 2994 ft 170 kts 178°
2026-05-04 08:19 51.47636 -0.27845 2033 ft 166 kts 284°
2026-05-04 08:19 51.47792 -0.29702 1998 ft 167 kts 275°
2026-05-04 08:20 51.47830 -0.31555 2000 ft 169 kts 272°
2026-05-04 08:20 51.47831 -0.33475 1959 ft 171 kts 271°
2026-05-04 08:20 51.47836 -0.35379 1709 ft 170 kts 271°
2026-05-04 08:20 51.47820 -0.37262 1221 ft 167 kts 271°
2026-05-04 08:21 51.47819 -0.39068 664 ft 157 kts 289°
2026-05-04 08:21 51.48046 -0.40707 206 ft 137 kts 317°
2026-05-04 08:21 51.48113 -0.40926 101 ft 10 kts 76°